GW3448 Weather Reports


Display with metric or nautical units.
time (UTC)temp
F
wind
direction
speed
MPH
gust
MPH
rain 1hr
in
rain 24hr
in
rain mn
in
humidity
%
barometer
mb
20260507090703 60 244 3.0 10.0 0.00 0.00 0.00 67 1013.6
20260507090602 60 218 3.0 10.0 0.00 0.00 0.00 67 1013.5
20260507090503 60 250 3.0 10.0 0.00 0.00 0.00 67 1013.4
20260507090402 60 232 3.0 10.0 0.00 0.00 0.00 67 1013.5
20260507090302 60 238 3.0 10.0 0.00 0.00 0.00 67 1013.5
20260507090201 60 193 4.0 10.0 0.00 0.00 0.00 67 1013.5
20260507090004 60 208 4.0 10.0 0.00 0.00 0.00 67 1013.5
20260507085903 60 258 4.0 10.0 0.00 0.00 0.00 67 1013.5
20260507085800 60 254 3.0 10.0 0.00 0.00 0.00 67 1013.4
20260507085702 60 262 3.0 10.0 0.00 0.00 0.00 67 1013.5
20260507085600 60 282 4.0 10.0 0.00 0.00 0.00 67 1013.5
20260507085502 60 231 4.0 10.0 0.00 0.00 0.00 67 1013.5
20260507085400 60 273 4.0 10.0 0.00 0.00 0.00 67 1013.5
20260507085301 60 254 4.0 10.0 0.00 0.00 0.00 67 1013.6
20260507085201 60 265 2.0 10.0 0.00 0.00 0.00 67 1013.6
20260507085102 60 288 2.0 7.0 0.00 0.00 0.00 67 1013.6
20260507085002 60 237 2.0 7.0 0.00 0.00 0.00 67 1013.5
20260507084903 60 246 2.0 7.0 0.00 0.00 0.00 67 1013.5
20260507084802 60 220 2.0 7.0 0.00 0.00 0.00 67 1013.5
20260507084708 60 294 3.0 7.0 0.00 0.00 0.00 67 1013.6
20260507084643 60 206 2.0 7.0 0.00 0.00 0.00 67 1013.6
20260507084630 60 234 1.0 7.0 0.00 0.00 0.00 67 1013.5
20260507084618 60 256 1.0 4.0 0.00 0.00 0.00 67 1013.6
20260507084348 60 269 1.0 5.0 0.00 0.00 0.00 67 1013.5
20260507084324 60 265 2.0 6.0 0.00 0.00 0.00 67 1013.5
20260507084242 60 163 2.0 6.0 0.00 0.00 0.00 67 1013.6
20260507083701 60 180 2.0 6.0 0.00 0.00 0.00 66 1013.5
20260507083613 60 197 2.0 6.0 0.00 0.00 0.00 66 1013.5
20260507083501 60 217 2.0 6.0 0.00 0.00 0.00 66 1013.5
20260507083401 60 194 3.0 6.0 0.00 0.00 0.00 66 1013.5
20260507083301 60 171 2.0 6.0 0.00 0.00 0.00 66 1013.5
20260507083201 60 184 2.0 6.0 0.00 0.00 0.00 66 1013.6
20260507083112 60 182 3.0 5.0 0.00 0.00 0.00 66 1013.6
20260507083002 60 202 2.0 5.0 0.00 0.00 0.00 66 1013.5
20260507082900 60 142 2.0 5.0 0.00 0.00 0.00 66 1013.6
20260507082800 60 204 1.0 5.0 0.00 0.00 0.00 66 1013.6
20260507082701 60 197 1.0 4.0 0.00 0.00 0.00 66 1013.6
20260507082635 61 166 1.0 4.0 0.00 0.00 0.00 66 1013.5
20260507082610 61 169 2.0 4.0 0.00 0.00 0.00 66 1013.6
20260507082559 61 193 2.0 4.0 0.00 0.00 0.00 66 1013.6
20260507082548 61 215 2.0 4.0 0.00 0.00 0.00 66 1013.6
20260507082001 61 182 0.0 3.0 0.00 0.00 0.00 66 1013.6
20260507081901 61 220 1.0 3.0 0.00 0.00 0.00 66 1013.7
20260507081802 61 221 1.0 3.0 0.00 0.00 0.00 66 1013.7
20260507081701 61 223 1.0 3.0 0.00 0.00 0.00 66 1013.7
20260507081611 61 237 1.0 4.0 0.00 0.00 0.00 65 1013.7
20260507081502 61 235 1.0 4.0 0.00 0.00 0.00 65 1013.7
20260507081402 61 201 2.0 4.0 0.00 0.00 0.00 65 1013.7
20260507081307 61 193 2.0 4.0 0.00 0.00 0.00 65 1013.7
20260507081203 61 180 2.0 4.0 0.00 0.00 0.00 65 1013.7
20260507081107 61 211 2.0 4.0 0.00 0.00 0.00 65 1013.7
20260507081003 61 229 2.0 4.0 0.00 0.00 0.00 65 1013.8
20260507080902 62 253 2.0 4.0 0.00 0.00 0.00 65 1013.7
20260507080803 62 260 2.0 4.0 0.00 0.00 0.00 65 1013.7
20260507080702 62 270 2.0 4.0 0.00 0.00 0.00 65 1013.7
20260507080605 62 271 2.0 9.0 0.00 0.00 0.00 64 1013.6
20260507080532 62 282 1.0 9.0 0.00 0.00 0.00 64 1013.6
20260507080517 62 254 1.0 9.0 0.00 0.00 0.00 64 1013.6
20260507080158 62 223 2.0 9.0 0.00 0.00 0.00 64 1013.5
20260507080132 62 246 2.0 9.0 0.00 0.00 0.00 64 1013.5
20260507080110 62 192 2.0 9.0 0.00 0.00 0.00 64 1013.5
20260507075749 62 245 5.0 9.0 0.00 0.00 0.00 64 1013.5
20260507075649 62 238 4.0 9.0 0.00 0.00 0.00 63 1013.5
20260507075632 62 269 4.0 8.0 0.00 0.00 0.00 63 1013.6
20260507075607 62 255 3.0 8.0 0.00 0.00 0.00 63 1013.6
20260507075246 62 209 3.0 8.0 0.00 0.00 0.00 63 1013.6
20260507075145 62 263 3.0 8.0 0.00 0.00 0.00 63 1013.6
20260507075118 62 271 3.0 8.0 0.00 0.00 0.00 63 1013.6
20260507075101 63 258 3.0 7.0 0.00 0.00 0.00 63 1013.6
20260507075050 63 269 2.0 7.0 0.00 0.00 0.00 63 1013.6
20260507074815 63 263 2.0 7.0 0.00 0.00 0.00 63 1013.5
20260507074751 63 258 2.0 10.0 0.00 0.00 0.00 62 1013.5
20260507074738 63 130 3.0 10.0 0.00 0.00 0.00 62 1013.5
20260507074201 63 265 2.0 10.0 0.00 0.00 0.00 62 1013.5
20260507074134 63 232 2.0 10.0 0.00 0.00 0.00 63 1013.4
20260507074122 63 228 2.0 10.0 0.00 0.00 0.00 63 1013.5
20260507073850 63 225 4.0 11.0 0.00 0.00 0.00 63 1013.5
20260507073531 63 265 3.0 15.0 0.00 0.00 0.00 62 1013.4
20260507073431 63 250 2.0 15.0 0.00 0.00 0.00 62 1013.4
20260507073331 63 286 3.0 15.0 0.00 0.00 0.00 62 1013.4
20260507073234 63 296 5.0 15.0 0.00 0.00 0.00 62 1013.4
20260507073217 63 273 5.0 15.0 0.00 0.00 0.00 62 1013.4
20260507073150 63 286 5.0 15.0 0.00 0.00 0.00 63 1013.4
20260507072831 63 262 5.0 15.0 0.00 0.00 0.00 63 1013.3
20260507072728 63 254 7.0 15.0 0.00 0.00 0.00 63 1013.3
20260507072629 63 259 8.0 15.0 0.00 0.00 0.00 62 1013.3
20260507072529 63 290 6.0 14.0 0.00 0.00 0.00 63 1013.2
20260507072437 63 262 7.0 14.0 0.00 0.00 0.00 62 1013.2
20260507072405 63 265 8.0 14.0 0.00 0.00 0.00 63 1013.2
20260507072354 63 209 7.0 14.0 0.00 0.00 0.00 63 1013.2
20260507072105 63 238 4.0 13.0 0.00 0.00 0.00 63 1013.1
20260507072051 63 140 3.0 13.0 0.00 0.00 0.00 63 1013.1
20260507071728 63 352 5.0 13.0 0.00 0.00 0.00 63 1013.0
20260507071639 63 275 4.0 13.0 0.00 0.00 0.00 63 1013.0
20260507071612 63 250 5.0 11.0 0.00 0.00 0.00 63 1012.9
20260507071601 63 278 4.0 11.0 0.00 0.00 0.00 63 1012.9
20260507071550 63 202 3.0 10.0 0.00 0.00 0.00 63 1012.9
20260507071537 63 223 4.0 10.0 0.00 0.00 0.00 64 1012.8
20260507071525 62 188 3.0 10.0 0.00 0.00 0.00 64 1012.9
20260507071209 62 223 5.0 9.0 0.00 0.00 0.00 64 1012.9
20260507070630 62 294 3.0 11.0 0.00 0.00 0.00 64 1012.8
20260507070530 62 301 3.0 11.0 0.00 0.00 0.00 65 1012.8
20260507070430 62 261 3.0 11.0 0.00 0.00 0.00 64 1012.7
20260507070328 62 292 3.0 11.0 0.00 0.00 0.00 64 1012.8
20260507070230 63 293 4.0 11.0 0.00 0.00 0.00 64 1012.8
20260507070130 63 317 6.0 11.0 0.00 0.00 0.00 64 1012.7
20260507070040 63 277 6.0 11.0 0.00 0.00 0.00 64 1012.7
20260507070001 63 272 5.0 14.0 0.00 0.00 0.00 63 1012.6
20260507065830 63 267 4.0 14.0 0.00 0.00 0.00 63 1012.6
20260507065729 63 310 3.0 14.0 0.00 0.00 0.00 63 1012.6
20260507065630 63 217 4.0 14.0 0.00 0.00 0.00 63 1012.5
20260507065604 63 202 3.0 14.0 0.00 0.00 0.00 63 1012.5
20260507065548 63 182 4.0 14.0 0.00 0.00 0.00 63 1012.4
20260507065227 63 242 4.0 14.0 0.00 0.00 0.00 63 1012.4
20260507065125 63 239 4.0 14.0 0.00 0.00 0.00 63 1012.4
20260507065057 63 225 4.0 14.0 0.00 0.00 0.00 62 1012.4
20260507065044 64 164 3.0 11.0 0.00 0.00 0.00 62 1012.4
20260507064722 64 239 6.0 11.0 0.00 0.00 0.00 62 1012.4
20260507064623 64 176 4.0 11.0 0.00 0.00 0.00 62 1012.3
20260507064522 64 236 3.0 11.0 0.00 0.00 0.00 62 1012.3
20260507064430 64 203 4.0 11.0 0.00 0.00 0.00 62 1012.3
20260507064415 64 194 5.0 11.0 0.00 0.00 0.00 61 1012.3
20260507064404 64 264 4.0 12.0 0.00 0.00 0.00 61 1012.2
20260507064117 64 267 4.0 12.0 0.00 0.00 0.00 61 1012.2
20260507064105 64 219 3.0 12.0 0.00 0.00 0.00 61 1012.2
20260507063714 64 175 2.0 12.0 0.00 0.00 0.00 61 1012.1
20260507063615 64 227 2.0 12.0 0.00 0.00 0.00 61 1012.1
20260507063513 64 238 2.0 12.0 0.00 0.00 0.00 61 1012.1
20260507063416 64 205 4.0 12.0 0.00 0.00 0.00 60 1012.1
20260507063312 64 198 4.0 12.0 0.00 0.00 0.00 60 1012.1
20260507063212 64 200 3.0 8.0 0.00 0.00 0.00 60 1012.0
20260507063111 64 246 2.0 8.0 0.00 0.00 0.00 60 1012.1
20260507063011 64 274 2.0 8.0 0.00 0.00 0.00 60 1012.1
20260507062910 64 239 3.0 8.0 0.00 0.00 0.00 60 1012.1
20260507062810 64 244 3.0 8.0 0.00 0.00 0.00 60 1012.1
20260507062750 64 221 3.0 6.0 0.00 0.00 0.00 60 1012.1
20260507062739 64 227 3.0 6.0 0.00 0.00 0.00 60 1012.1
20260507062407 64 242 4.0 7.0 0.00 0.00 0.00 60 1012.1
20260507062306 64 236 4.0 7.0 0.00 0.00 0.00 60 1012.1
20260507062205 65 261 2.0 7.0 0.00 0.00 0.00 61 1012.1
20260507062101 65 247 2.0 7.0 0.00 0.00 0.00 61 1012.1
20260507062004 65 160 2.0 7.0 0.00 0.00 0.00 60 1012.2
20260507061902 65 241 2.0 7.0 0.00 0.00 0.00 61 1012.1
20260507061802 65 209 3.0 10.0 0.00 0.00 0.00 60 1012.2
20260507061700 65 127 3.0 10.0 0.00 0.00 0.00 60 1012.3
20260507061608 65 225 4.0 10.0 0.00 0.00 0.00 60 1012.3
20260507061502 65 231 4.0 10.0 0.00 0.00 0.00 60 1012.3
20260507061404 65 198 3.0 10.0 0.00 0.00 0.00 60 1012.3
20260507061339 65 284 2.0 10.0 0.00 0.00 0.00 60 1012.4
20260507061325 65 320 4.0 10.0 0.00 0.00 0.00 60 1012.4
20260507061004 65 216 3.0 12.0 0.00 0.00 0.00 60 1012.5
20260507060916 65 243 2.0 12.0 0.00 0.00 0.00 60 1012.3
20260507060901 65 188 3.0 12.0 0.00 0.00 0.00 60 1012.3
20260507060849 65 282 3.0 12.0 0.00 0.00 0.00 59 1012.4
20260507060838 65 239 3.0 12.0 0.00 0.00 0.00 59 1012.3
20260507060522 65 269 2.0 12.0 0.00 0.00 0.00 59 1012.3
20260507060203 65 148 4.0 12.0 0.00 0.00 0.00 59 1012.3
20260507060101 66 206 3.0 12.0 0.00 0.00 0.00 59 1012.3
20260507060005 66 248 3.0 11.0 0.00 0.00 0.00 59 1012.3
20260507055901 66 197 4.0 11.0 0.00 0.00 0.00 58 1012.3
20260507055805 66 192 4.0 11.0 0.00 0.00 0.00 58 1012.2
20260507055702 66 198 3.0 11.0 0.00 0.00 0.00 58 1012.2
20260507055605 66 187 3.0 9.0 0.00 0.00 0.00 58 1012.2
20260507055501 66 177 4.0 9.0 0.00 0.00 0.00 58 1012.2
20260507055404 66 209 4.0 9.0 0.00 0.00 0.00 58 1012.3
20260507055301 66 262 3.0 9.0 0.00 0.00 0.00 58 1012.2
20260507055206 66 169 3.0 9.0 0.00 0.00 0.00 58 1012.2
20260507055101 66 229 3.0 9.0 0.00 0.00 0.00 58 1012.3
20260507055005 66 178 3.0 9.0 0.00 0.00 0.00 58 1012.2
20260507054900 66 192 2.0 9.0 0.00 0.00 0.00 57 1012.2
20260507054837 66 225 4.0 14.0 0.00 0.00 0.00 57 1012.2
20260507054823 66 203 4.0 14.0 0.00 0.00 0.00 57 1012.3
20260507054501 66 176 3.0 14.0 0.00 0.00 0.00 57 1012.2
20260507054404 66 232 4.0 14.0 0.00 0.00 0.00 57 1012.2
20260507054302 66 236 4.0 14.0 0.00 0.00 0.00 57 1012.2
20260507054203 66 225 4.0 14.0 0.00 0.00 0.00 57 1012.2
20260507054101 66 228 5.0 14.0 0.00 0.00 0.00 57 1012.3
20260507054001 66 254 5.0 14.0 0.00 0.00 0.00 57 1012.3
20260507053900 66 229 4.0 14.0 0.00 0.00 0.00 57 1012.3
20260507053802 66 180 4.0 12.0 0.00 0.00 0.00 57 1012.4
20260507053708 66 252 4.0 12.0 0.00 0.00 0.00 57 1012.4
20260507053600 66 120 4.0 9.0 0.00 0.00 0.00 57 1012.4
20260507053501 66 223 3.0 9.0 0.00 0.00 0.00 57 1012.4
20260507053402 66 223 2.0 9.0 0.00 0.00 0.00 57 1012.4
20260507053301 66 283 2.0 8.0 0.00 0.00 0.00 57 1012.3
20260507053200 66 186 3.0 8.0 0.00 0.00 0.00 57 1012.5
20260507053100 66 246 3.0 9.0 0.00 0.00 0.00 57 1012.5
20260507053014 66 206 3.0 9.0 0.00 0.00 0.00 57 1012.5
20260507052901 66 169 3.0 9.0 0.00 0.00 0.00 57 1012.5
20260507052806 66 205 3.0 9.0 0.00 0.00 0.00 57 1012.5
20260507052702 66 213 2.0 9.0 0.00 0.00 0.00 57 1012.5
20260507052604 66 169 4.0 9.0 0.00 0.00 0.00 57 1012.5
20260507052509 66 262 4.0 9.0 0.00 0.00 0.00 57 1012.5
20260507052436 66 217 4.0 9.0 0.00 0.00 0.00 57 1012.4
20260507052421 66 225 3.0 9.0 0.00 0.00 0.00 57 1012.5
20260507052102 67 177 4.0 8.0 0.00 0.00 0.00 57 1012.5
20260507052024 67 209 3.0 8.0 0.00 0.00 0.00 57 1012.5
20260507051959 67 189 2.0 8.0 0.00 0.00 0.00 57 1012.3
20260507051949 67 198 2.0 8.0 0.00 0.00 0.00 57 1012.4
20260507051936 67 221 3.0 8.0 0.00 0.00 0.00 57 1012.3
20260507051923 67 176 3.0 8.0 0.00 0.00 0.00 57 1012.3
20260507051640 67 170 2.0 8.0 0.00 0.00 0.00 57 1012.3
20260507051101 67 214 3.0 5.0 0.00 0.00 0.00 57 1012.2
20260507051003 67 267 1.0 5.0 0.00 0.00 0.00 57 1012.3
20260507050900 67 178 2.0 5.0 0.00 0.00 0.00 57 1012.2
20260507050802 67 155 2.0 5.0 0.00 0.00 0.00 57 1012.3
20260507050700 67 135 2.0 5.0 0.00 0.00 0.00 57 1012.3
20260507050601 67 232 2.0 6.0 0.00 0.00 0.00 57 1012.3
20260507050529 67 146 2.0 6.0 0.00 0.00 0.00 57 1012.3
20260507050506 67 148 2.0 6.0 0.00 0.00 0.00 57 1012.3
20260507050455 67 186 2.0 6.0 0.00 0.00 0.00 57 1012.3
20260507050442 67 207 1.0 6.0 0.00 0.00 0.00 57 1012.3
20260507045901 67 170 1.0 6.0 0.00 0.00 0.00 57 1012.3
20260507045804 67 192 2.0 6.0 0.00 0.00 0.00 56 1012.4
20260507045701 68 222 2.0 6.0 0.00 0.00 0.00 57 1012.4
20260507045601 68 195 2.0 6.0 0.00 0.00 0.00 57 1012.3
20260507045503 68 184 2.0 11.0 0.00 0.00 0.00 56 1012.4
20260507045403 68 173 2.0 11.0 0.00 0.00 0.00 56 1012.4
20260507045301 68 205 2.0 11.0 0.00 0.00 0.00 56 1012.3
20260507045201 68 185 1.0 11.0 0.00 0.00 0.00 56 1012.4
20260507045102 68 207 2.0 11.0 0.00 0.00 0.00 56 1012.4
20260507045004 68 201 2.0 11.0 0.00 0.00 0.00 55 1012.3
20260507044900 68 235 3.0 11.0 0.00 0.00 0.00 55 1012.4
20260507044801 68 158 4.0 11.0 0.00 0.00 0.00 55 1012.4
20260507044659 69 182 3.0 11.0 0.00 0.00 0.00 54 1012.4
20260507044601 69 185 3.0 11.0 0.00 0.00 0.00 54 1012.4
20260507044542 69 255 3.0 11.0 0.00 0.00 0.00 53 1012.4
20260507044517 69 188 2.0 11.0 0.00 0.00 0.00 52 1012.4
20260507044157 69 214 3.0 11.0 0.00 0.00 0.00 51 1012.4
20260507044058 69 163 4.0 11.0 0.00 0.00 0.00 51 1012.4
20260507043955 69 177 5.0 11.0 0.00 0.00 0.00 51 1012.4
20260507043854 69 195 6.0 11.0 0.00 0.00 0.00 50 1012.5
20260507043754 69 193 4.0 11.0 0.00 0.00 0.00 48 1012.5
20260507043714 69 184 3.0 6.0 0.00 0.00 0.00 46 1012.5
20260507043705 69 159 2.0 6.0 0.00 0.00 0.00 46 1012.5
20260507043654 69 159 2.0 6.0 0.00 0.00 0.00 46 1012.4
20260507043254 69 151 3.0 6.0 0.00 0.00 0.00 46 1012.4
20260507043232 69 178 4.0 6.0 0.00 0.00 0.00 46 1012.4
20260507043219 69 163 4.0 6.0 0.00 0.00 0.00 46 1012.4
20260507042927 70 151 1.0 4.0 0.00 0.00 0.00 45 1012.3
20260507042916 70 108 1.0 2.0 0.00 0.00 0.00 46 1012.3
20260507042905 70 108 1.0 2.0 0.00 0.00 0.00 45 1012.3
20260507042853 70 109 1.0 4.0 0.00 0.00 0.00 44 1012.3
20260507042838 70 82 0.0 4.0 0.00 0.00 0.00 44 1012.3
20260507042817 70 69 0.0 4.0 0.00 0.00 0.00 46 1012.3
20260507042807 70 71 0.0 4.0 0.00 0.00 0.00 45 1012.3
20260507041821 71 140 2.0 4.0 0.00 0.00 0.00 44 1012.2
20260507041808 71 179 1.0 4.0 0.00 0.00 0.00 44 1012.2
20260507041759 71 197 1.0 3.0 0.00 0.00 0.00 44 1012.3
20260507041746 71 196 2.0 3.0 0.00 0.00 0.00 44 1012.2
20260507041724 71 207 2.0 3.0 0.00 0.00 0.00 42 1012.2
20260507041452 71 225 1.0 3.0 0.00 0.00 0.00 42 1012.1
20260507040949 71 96 0.0 1.0 0.00 0.00 0.00 43 1012.1
20260507040654 71 95 0.0 1.0 0.00 0.00 0.00 42 1012.0
20260507040640 71 105 0.0 1.0 0.00 0.00 0.00 42 1012.0
20260507040630 71 109 0.0 1.0 0.00 0.00 0.00 41 1011.9
20260507040230 72 107 0.0 2.0 0.00 0.00 0.00 41 1011.9
20260507040132 72 107 0.0 2.0 0.00 0.00 0.00 42 1011.9
20260507040028 72 105 0.0 2.0 0.00 0.00 0.00 42 1011.9
20260507040011 72 94 0.0 2.0 0.00 0.00 0.00 40 1012.0
20260507035946 72 94 0.0 2.0 0.00 0.00 0.00 40 1011.9
20260507035625 72 95 0.0 2.0 0.00 0.00 0.00 41 1011.8
20260507035518 72 95 0.0 2.0 0.00 0.00 0.00 41 1011.8
20260507035420 72 95 1.0 2.0 0.00 0.00 0.00 41 1011.8
20260507035312 73 95 1.0 2.0 0.00 0.00 0.00 41 1011.8
20260507035212 73 98 1.0 2.0 0.00 0.00 0.00 41 1011.7
20260507035108 73 98 1.0 2.0 0.00 0.00 0.00 41 1011.7
20260507035006 73 98 1.0 2.0 0.00 0.00 0.00 40 1011.6
20260507034902 73 98 1.0 2.0 0.00 0.00 0.00 40 1011.6
20260507034803 73 94 1.0 4.0 0.00 0.00 0.00 40 1011.6
20260507034702 73 129 0.0 4.0 0.00 0.00 0.00 40 1011.6
20260507034642 73 164 0.0 4.0 0.00 0.00 0.00 40 1011.6
20260507034633 73 170 0.0 4.0 0.00 0.00 0.00 41 1011.6
20260507034303 74 170 0.0 5.0 0.00 0.00 0.00 42 1011.5
20260507034201 74 212 0.0 5.0 0.00 0.00 0.00 39 1011.5
20260507034102 74 287 1.0 5.0 0.00 0.00 0.00 39 1011.5
20260507034043 74 291 1.0 5.0 0.00 0.00 0.00 39 1011.5
20260507034022 74 304 1.0 5.0 0.00 0.00 0.00 38 1011.5
20260507033702 74 323 2.0 5.0 0.00 0.00 0.00 39 1011.4
20260507033607 74 308 2.0 5.0 0.00 0.00 0.00 39 1011.4
20260507033456 74 302 2.0 5.0 0.00 0.00 0.00 39 1011.4
20260507033356 74 331 2.0 4.0 0.00 0.00 0.00 39 1011.4
20260507033327 74 323 1.0 4.0 0.00 0.00 0.00 40 1011.4
20260507033315 74 0 1.0 2.0 0.00 0.00 0.00 40 1011.4
20260507032953 74 325 0.0 2.0 0.00 0.00 0.00 41 1011.3
20260507032847 74 319 0.0 2.0 0.00 0.00 0.00 41 1011.3
20260507032736 74 318 0.0 2.0 0.00 0.00 0.00 41 1011.3
20260507032635 74 317 0.0 2.0 0.00 0.00 0.00 41 1011.3
20260507032534 75 316 0.0 2.0 0.00 0.00 0.00 40 1011.3
20260507032509 75 316 0.0 2.0 0.00 0.00 0.00 40 1011.3
20260507032449 75 316 1.0 2.0 0.00 0.00 0.00 40 1011.3
20260507032204 75 302 1.0 2.0 0.00 0.00 0.00 39 1011.3
20260507032152 75 352 0.0 2.0 0.00 0.00 0.00 40 1011.2
20260507031829 75 352 1.0 2.0 0.00 0.00 0.00 39 1011.2
20260507031752 75 352 1.0 2.0 0.00 0.00 0.00 39 1011.2
20260507031735 75 316 1.0 2.0 0.00 0.00 0.00 39 1011.1
20260507031726 75 312 0.0 3.0 0.00 0.00 0.00 39 1011.1
20260507031714 75 309 0.0 3.0 0.00 0.00 0.00 39 1011.1
20260507031653 75 294 1.0 3.0 0.00 0.00 0.00 39 1011.1
20260507031201 76 260 1.0 3.0 0.00 0.00 0.00 39 1011.0
20260507031151 76 263 0.0 3.0 0.00 0.00 0.00 39 1010.9
20260507031129 76 281 1.0 3.0 0.00 0.00 0.00 39 1010.9
20260507031118 76 284 2.0 3.0 0.00 0.00 0.00 39 1010.9
20260507031105 76 257 1.0 3.0 0.00 0.00 0.00 39 1010.9
20260507031052 76 267 1.0 3.0 0.00 0.00 0.00 39 1010.9
20260507030553 76 273 0.0 4.0 0.00 0.00 0.00 38 1010.9
20260507030542 76 274 1.0 4.0 0.00 0.00 0.00 39 1010.9
20260507025702 76 265 1.0 5.0 0.00 0.00 0.00 38 1010.8
20260507025601 76 259 2.0 5.0 0.00 0.00 0.00 38 1010.7
20260507025502 76 246 3.0 6.0 0.00 0.00 0.00 38 1010.7
20260507025415 76 259 3.0 6.0 0.00 0.00 0.00 37 1010.7
20260507025306 76 275 3.0 6.0 0.00 0.00 0.00 37 1010.7
20260507025201 77 257 3.0 6.0 0.00 0.00 0.00 37 1010.7
20260507025102 77 254 3.0 6.0 0.00 0.00 0.00 37 1010.8
20260507025002 77 219 2.0 6.0 0.00 0.00 0.00 37 1010.7
20260507024914 77 269 3.0 6.0 0.00 0.00 0.00 37 1010.7
20260507024804 77 257 3.0 6.0 0.00 0.00 0.00 37 1010.7
20260507024702 77 264 3.0 6.0 0.00 0.00 0.00 37 1010.7
20260507024602 77 252 2.0 6.0 0.00 0.00 0.00 36 1010.8
20260507024503 77 252 2.0 4.0 0.00 0.00 0.00 36 1010.8
20260507024413 77 273 2.0 3.0 0.00 0.00 0.00 37 1010.8
20260507024302 77 244 2.0 4.0 0.00 0.00 0.00 36 1010.7
20260507024204 77 267 2.0 4.0 0.00 0.00 0.00 36 1010.7
20260507024102 77 286 1.0 4.0 0.00 0.00 0.00 36 1010.8
20260507024000 77 277 2.0 4.0 0.00 0.00 0.00 36 1010.8
20260507023911 77 266 2.0 6.0 0.00 0.00 0.00 36 1010.8
20260507023805 77 260 2.0 6.0 0.00 0.00 0.00 36 1010.7
20260507023701 77 315 2.0 6.0 0.00 0.00 0.00 36 1010.7
20260507023602 77 320 2.0 6.0 0.00 0.00 0.00 36 1010.7
20260507023502 78 252 2.0 6.0 0.00 0.00 0.00 36 1010.7
20260507023409 78 273 2.0 6.0 0.00 0.00 0.00 36 1010.7
20260507023312 78 287 2.0 6.0 0.00 0.00 0.00 35 1010.6
20260507023201 78 250 2.0 6.0 0.00 0.00 0.00 36 1010.7
20260507023103 78 281 2.0 6.0 0.00 0.00 0.00 35 1010.7
20260507023001 78 274 1.0 6.0 0.00 0.00 0.00 35 1010.7
20260507022908 78 276 1.0 4.0 0.00 0.00 0.00 35 1010.7
20260507022801 78 225 1.0 4.0 0.00 0.00 0.00 35 1010.6
20260507022725 78 296 2.0 4.0 0.00 0.00 0.00 35 1010.6
20260507022714 78 349 2.0 5.0 0.00 0.00 0.00 35 1010.6
20260507022406 78 298 1.0 7.0 0.00 0.00 0.00 35 1010.6
20260507022252 78 274 1.0 7.0 0.00 0.00 0.00 34 1010.7
20260507022142 78 304 2.0 8.0 0.00 0.00 0.00 35 1010.7
20260507022051 78 252 2.0 8.0 0.00 0.00 0.00 35 1010.7
20260507022035 78 275 2.0 8.0 0.00 0.00 0.00 35 1010.6
20260507021920 78 279 2.0 9.0 0.00 0.00 0.00 35 1010.6
20260507021814 78 279 3.0 11.0 0.00 0.00 0.00 34 1010.6
20260507021703 78 285 3.0 11.0 0.00 0.00 0.00 34 1010.6
20260507021650 78 334 4.0 11.0 0.00 0.00 0.00 34 1010.7
20260507021638 78 287 4.0 11.0 0.00 0.00 0.00 34 1010.6
20260507021355 78 310 3.0 11.0 0.00 0.00 0.00 34 1010.6
20260507021033 79 302 5.0 11.0 0.00 0.00 0.00 34 1010.6
20260507020933 79 268 4.0 11.0 0.00 0.00 0.00 34 1010.6
20260507020832 79 338 4.0 8.0 0.00 0.00 0.00 34 1010.6
20260507020729 79 12 4.0 8.0 0.00 0.00 0.00 34 1010.5
20260507020629 79 289 3.0 8.0 0.00 0.00 0.00 33 1010.5
20260507020529 79 266 4.0 8.0 0.00 0.00 0.00 34 1010.5
20260507020431 79 281 4.0 8.0 0.00 0.00 0.00 34 1010.5
20260507020329 79 5 4.0 8.0 0.00 0.00 0.00 33 1010.4
20260507020304 79 319 4.0 8.0 0.00 0.00 0.00 34 1010.4
20260507020219 79 352 4.0 8.0 0.00 0.00 0.00 34 1010.4
20260507020206 79 346 4.0 8.0 0.00 0.00 0.00 34 1010.5
20260507020156 79 316 3.0 9.0 0.00 0.00 0.00 34 1010.4
20260507020131 79 0 3.0 9.0 0.00 0.00 0.00 35 1010.4
20260507015901 79 277 3.0 9.0 0.00 0.00 0.00 37 1010.4
20260507015629 79 342 2.0 9.0 0.00 0.00 0.00 37 1010.3
20260507015345 79 15 4.0 9.0 0.00 0.00 0.00 39 1010.3
20260507015334 79 0 3.0 9.0 0.00 0.00 0.00 41 1010.3
20260507015101 79 348 0.0 3.0 0.00 0.00 0.00 45 1010.3
20260507014717 79 193 1.0 3.0 0.00 0.00 0.00 44 1010.2
20260507014644 79 215 1.0 4.0 0.00 0.00 0.00 45 1010.2
20260507014636 79 220 1.0 4.0 0.00 0.00 0.00 45 1010.2
20260507014315 79 227 2.0 4.0 0.00 0.00 0.00 45 1010.2
20260507014202 79 242 1.0 4.0 0.00 0.00 0.00 45 1010.2
20260507014102 79 243 1.0 6.0 0.00 0.00 0.00 44 1010.2
20260507014001 79 225 2.0 10.0 0.00 0.00 0.00 44 1010.2
20260507013905 79 155 2.0 10.0 0.00 0.00 0.00 44 1010.2
20260507013833 79 94 2.0 10.0 0.00 0.00 0.00 44 1010.2
20260507013823 79 51 2.0 10.0 0.00 0.00 0.00 44 1010.2
20260507013502 79 122 2.0 12.0 0.00 0.00 0.00 44 1010.3
20260507013401 79 134 3.0 12.0 0.00 0.00 0.00 44 1010.3
20260507013302 79 342 5.0 12.0 0.00 0.00 0.00 44 1010.4
20260507013201 79 317 5.0 12.0 0.00 0.00 0.00 44 1010.4
20260507013104 79 350 2.0 12.0 0.00 0.00 0.00 44 1010.4
20260507013001 79 312 1.0 12.0 0.00 0.00 0.00 44 1010.3
20260507012902 79 259 2.0 12.0 0.00 0.00 0.00 45 1010.3
20260507012800 79 328 5.0 12.0 0.00 0.00 0.00 44 1010.3
20260507012720 79 350 5.0 12.0 0.00 0.00 0.00 44 1010.3
20260507012704 79 229 2.0 12.0 0.00 0.00 0.00 44 1010.3
20260507012652 79 274 1.0 8.0 0.00 0.00 0.00 44 1010.3
20260507012638 79 342 1.0 8.0 0.00 0.00 0.00 44 1010.3
20260507012615 79 350 1.0 8.0 0.00 0.00 0.00 44 1010.2
20260507012123 79 28 3.0 8.0 0.00 0.00 0.00 44 1010.2
20260507011831 79 10 4.0 8.0 0.00 0.00 0.00 45 1010.2
20260507011820 79 263 4.0 8.0 0.00 0.00 0.00 44 1010.2
20260507011809 79 261 4.0 8.0 0.00 0.00 0.00 45 1010.1
20260507011536 79 316 3.0 12.0 0.00 0.00 0.00 44 1010.1
20260507011234 79 227 4.0 12.0 0.00 0.00 0.00 44 1009.8
20260507011222 79 175 4.0 12.0 0.00 0.00 0.00 44 1009.6
20260507010903 79 227 5.0 12.0 0.00 0.00 0.00 44 1009.6
20260507010801 79 158 5.0 12.0 0.00 0.00 0.00 44 1009.5
20260507010705 79 199 7.0 12.0 0.00 0.00 0.00 44 1009.6
20260507010601 79 229 6.0 12.0 0.00 0.00 0.00 44 1009.6
20260507010505 79 174 5.0 12.0 0.00 0.00 0.00 44 1009.6
20260507010401 79 217 5.0 12.0 0.00 0.00 0.00 45 1009.6
20260507010321 79 167 5.0 12.0 0.00 0.00 0.00 45 1009.5
20260507010302 80 202 4.0 12.0 0.00 0.00 0.00 45 1009.6
20260507010251 80 213 4.0 12.0 0.00 0.00 0.00 45 1009.5
20260507005904 80 150 5.0 12.0 0.00 0.00 0.00 44 1009.6
20260507005800 80 186 6.0 12.0 0.00 0.00 0.00 44 1009.5
20260507005704 80 247 6.0 12.0 0.00 0.00 0.00 44 1009.5
20260507005600 80 216 5.0 12.0 0.00 0.00 0.00 44 1009.6
20260507005505 80 240 4.0 11.0 0.00 0.00 0.00 44 1009.6
20260507005400 80 167 4.0 11.0 0.00 0.00 0.00 44 1009.5
20260507005306 80 268 5.0 11.0 0.00 0.00 0.00 44 1009.6
20260507005200 80 167 5.0 11.0 0.00 0.00 0.00 44 1009.6
20260507005102 80 221 5.0 11.0 0.00 0.00 0.00 44 1009.5
20260507005043 80 268 6.0 11.0 0.00 0.00 0.00 43 1009.6
20260507005032 80 241 5.0 11.0 0.00 0.00 0.00 44 1009.6
20260507005008 80 195 5.0 11.0 0.00 0.00 0.00 44 1009.5
20260507004738 80 182 5.0 8.0 0.00 0.00 0.00 43 1009.6
20260507004727 80 251 4.0 8.0 0.00 0.00 0.00 44 1009.6
20260507004713 80 147 3.0 8.0 0.00 0.00 0.00 44 1009.5
20260507004650 80 281 3.0 9.0 0.00 0.00 0.00 44 1009.6
20260507004416 80 223 4.0 9.0 0.00 0.00 0.00 44 1009.6
20260507004403 80 186 4.0 14.0 0.00 0.00 0.00 44 1009.6
20260507004353 80 240 4.0 14.0 0.00 0.00 0.00 44 1009.6
20260507004328 80 148 4.0 14.0 0.00 0.00 0.00 44 1009.6
20260507004057 80 200 4.0 14.0 0.00 0.00 0.00 45 1009.6
20260507003335 81 250 7.0 14.0 0.00 0.00 0.00 44 1009.6
20260507003102 81 264 4.0 12.0 0.00 0.00 0.00 44 1009.7
20260507003051 81 176 5.0 12.0 0.00 0.00 0.00 44 1009.6
20260507002650 81 247 3.0 12.0 0.00 0.00 0.00 45 1009.7
20260507002549 81 229 3.0 12.0 0.00 0.00 0.00 45 1009.6
20260507002449 81 163 4.0 12.0 0.00 0.00 0.00 44 1009.6
20260507002348 81 259 4.0 12.0 0.00 0.00 0.00 44 1009.6
20260507002248 81 221 4.0 12.0 0.00 0.00 0.00 44 1009.5
20260507002146 81 285 5.0 12.0 0.00 0.00 0.00 44 1009.6
20260507002051 81 188 4.0 12.0 0.00 0.00 0.00 44 1009.6
20260507001944 81 284 4.0 12.0 0.00 0.00 0.00 44 1009.5
20260507001915 81 229 5.0 12.0 0.00 0.00 0.00 44 1009.5
20260507001849 81 156 4.0 12.0 0.00 0.00 0.00 44 1009.5
20260507001836 81 213 4.0 11.0 0.00 0.00 0.00 44 1009.6
20260507001822 81 162 4.0 11.0 0.00 0.00 0.00 44 1009.5
20260507001240 81 200 3.0 8.0 0.00 0.00 0.00 43 1009.6
20260507001140 81 173 3.0 8.0 0.00 0.00 0.00 44 1009.6
20260507001110 81 154 4.0 11.0 0.00 0.00 0.00 43 1009.6
20260507001058 81 248 4.0 14.0 0.00 0.00 0.00 43 1009.6
20260507000738 81 277 4.0 14.0 0.00 0.00 0.00 43 1009.5
20260507000636 81 181 4.0 14.0 0.00 0.00 0.00 42 1009.6
20260507000536 81 188 4.0 14.0 0.00 0.00 0.00 42 1009.6
20260507000436 81 211 4.0 14.0 0.00 0.00 0.00 42 1009.5
20260507000335 82 212 4.0 14.0 0.00 0.00 0.00 42 1009.5
20260507000234 82 227 6.0 14.0 0.00 0.00 0.00 42 1009.5
20260507000132 82 219 6.0 14.0 0.00 0.00 0.00 41 1009.4
20260507000031 82 199 5.0 14.0 0.00 0.00 0.00 41 1009.6
20260506235958 82 219 4.0 14.0 0.00 0.00 0.00 42 1009.5
20260506235945 82 170 4.0 14.0 0.00 0.00 0.00 41 1009.5
20260506235921 82 224 4.0 14.0 0.00 0.00 0.00 42 1009.6
20260506235529 82 161 4.0 14.0 0.00 0.00 0.00 41 1009.5
20260506235432 82 178 4.0 14.0 0.00 0.00 0.00 41 1009.6
20260506235329 82 251 5.0 14.0 0.00 0.00 0.00 40 1009.5
20260506235230 82 208 5.0 14.0 0.00 0.00 0.00 40 1009.6
20260506235207 82 190 4.0 14.0 0.00 0.00 0.00 41 1009.5
20260506235151 82 224 3.0 10.0 0.00 0.00 0.00 41 1009.5
20260506234831 82 237 4.0 10.0 0.00 0.00 0.00 41 1009.5
20260506234801 82 188 4.0 10.0 0.00 0.00 0.00 41 1009.6
20260506234750 82 161 5.0 10.0 0.00 0.00 0.00 41 1009.5
20260506234431 82 187 3.0 11.0 0.00 0.00 0.00 40 1009.5
20260506234347 82 188 3.0 11.0 0.00 0.00 0.00 41 1009.5
20260506234321 82 250 4.0 11.0 0.00 0.00 0.00 41 1009.5
20260506234309 82 251 5.0 14.0 0.00 0.00 0.00 40 1009.5
20260506234255 82 237 5.0 14.0 0.00 0.00 0.00 40 1009.4
20260506234244 82 196 4.0 14.0 0.00 0.00 0.00 41 1009.4
20260506233745 82 262 5.0 14.0 0.00 0.00 0.00 41 1009.3
20260506233424 82 65 5.0 14.0 0.00 0.00 0.00 41 1009.4
20260506233407 82 198 6.0 14.0 0.00 0.00 0.00 42 1009.4
20260506233345 83 177 8.0 14.0 0.00 0.00 0.00 41 1009.4
20260506233022 83 161 5.0 11.0 0.00 0.00 0.00 41 1009.4
20260506232921 83 212 4.0 11.0 0.00 0.00 0.00 42 1009.5
20260506232837 83 171 4.0 11.0 0.00 0.00 0.00 42 1009.5
20260506232729 83 148 3.0 11.0 0.00 0.00 0.00 42 1009.5
20260506232714 83 267 4.0 11.0 0.00 0.00 0.00 42 1009.6
20260506232701 83 171 4.0 11.0 0.00 0.00 0.00 42 1009.6
20260506232424 83 188 5.0 10.0 0.00 0.00 0.00 42 1009.7
20260506232401 83 219 5.0 10.0 0.00 0.00 0.00 41 1009.6
20260506232128 83 209 6.0 10.0 0.00 0.00 0.00 42 1009.7
20260506231807 83 137 5.0 12.0 0.00 0.00 0.00 41 1009.7
20260506231706 83 173 4.0 12.0 0.00 0.00 0.00 41 1009.6
20260506231607 83 171 5.0 12.0 0.00 0.00 0.00 41 1009.6
20260506231506 83 166 5.0 12.0 0.00 0.00 0.00 41 1009.7
20260506231405 84 159 4.0 12.0 0.00 0.00 0.00 40 1009.7
20260506231309 84 171 4.0 12.0 0.00 0.00 0.00 40 1009.7
20260506231235 84 184 3.0 12.0 0.00 0.00 0.00 40 1009.6
20260506231222 84 234 3.0 12.0 0.00 0.00 0.00 40 1009.7
20260506230902 84 254 4.0 12.0 0.00 0.00 0.00 41 1009.6
20260506230803 83 184 4.0 12.0 0.00 0.00 0.00 41 1009.7
20260506230701 83 279 6.0 16.0 0.00 0.00 0.00 40 1009.7
20260506230603 84 167 6.0 16.0 0.00 0.00 0.00 40 1009.7
20260506230501 84 165 5.0 16.0 0.00 0.00 0.00 40 1009.7
20260506230414 84 244 5.0 16.0 0.00 0.00 0.00 40 1009.7
20260506230358 84 162 6.0 16.0 0.00 0.00 0.00 40 1009.6
20260506230336 84 202 6.0 16.0 0.00 0.00 0.00 40 1009.7
20260506230320 84 151 5.0 16.0 0.00 0.00 0.00 40 1009.7
20260506230049 84 181 6.0 16.0 0.00 0.00 0.00 39 1009.8
20260506225727 84 149 4.0 10.0 0.00 0.00 0.00 40 1009.8
20260506225715 84 263 3.0 10.0 0.00 0.00 0.00 40 1009.8
20260506225436 84 229 3.0 14.0 0.00 0.00 0.00 40 1009.8
20260506225425 84 234 4.0 14.0 0.00 0.00 0.00 40 1009.8
20260506225052 84 155 4.0 14.0 0.00 0.00 0.00 39 1009.8
20260506225026 84 242 4.0 14.0 0.00 0.00 0.00 39 1009.9
20260506225012 83 161 5.0 14.0 0.00 0.00 0.00 39 1010.1
20260506224650 83 176 6.0 14.0 0.00 0.00 0.00 38 1010.1
20260506224549 83 187 4.0 14.0 0.00 0.00 0.00 38 1010.1
20260506224522 83 298 4.0 12.0 0.00 0.00 0.00 38 1010.1
20260506224510 83 238 6.0 12.0 0.00 0.00 0.00 38 1010.1
20260506224147 83 184 6.0 12.0 0.00 0.00 0.00 38 1010.1
20260506224045 83 161 6.0 12.0 0.00 0.00 0.00 38 1010.1
20260506223945 83 236 6.0 12.0 0.00 0.00 0.00 38 1010.1
20260506223845 83 232 4.0 12.0 0.00 0.00 0.00 38 1010.1
20260506223744 83 209 3.0 10.0 0.00 0.00 0.00 38 1010.1
20260506223643 83 286 3.0 10.0 0.00 0.00 0.00 38 1010.1
20260506223542 83 219 3.0 10.0 0.00 0.00 0.00 38 1010.1
20260506223442 83 184 4.0 10.0 0.00 0.00 0.00 38 1010.1
20260506223341 83 204 4.0 10.0 0.00 0.00 0.00 38 1010.1
20260506223243 83 259 4.0 10.0 0.00 0.00 0.00 38 1010.2
20260506223149 83 253 4.0 11.0 0.00 0.00 0.00 37 1010.2
20260506223133 83 221 5.0 11.0 0.00 0.00 0.00 38 1010.1
20260506223121 83 335 5.0 11.0 0.00 0.00 0.00 37 1010.1
20260506223110 83 211 4.0 11.0 0.00 0.00 0.00 38 1010.2
20260506223055 83 210 3.0 11.0 0.00 0.00 0.00 38 1010.1
20260506222434 83 192 4.0 11.0 0.00 0.00 0.00 38 1010.2
20260506222334 83 157 5.0 12.0 0.00 0.00 0.00 38 1010.2
20260506222237 83 209 4.0 12.0 0.00 0.00 0.00 38 1010.2
20260506222132 83 175 4.0 12.0 0.00 0.00 0.00 37 1010.2
20260506222032 83 174 4.0 12.0 0.00 0.00 0.00 37 1010.2
20260506221929 83 184 3.0 12.0 0.00 0.00 0.00 37 1010.3
20260506221831 83 148 4.0 12.0 0.00 0.00 0.00 37 1010.2
20260506221734 83 208 4.0 12.0 0.00 0.00 0.00 36 1010.3
20260506221629 83 203 4.0 12.0 0.00 0.00 0.00 37 1010.3
20260506221528 84 182 4.0 12.0 0.00 0.00 0.00 37 1010.3
20260506221430 84 183 3.0 12.0 0.00 0.00 0.00 37 1010.3
20260506221401 84 194 3.0 12.0 0.00 0.00 0.00 37 1010.4
20260506221350 84 174 4.0 12.0 0.00 0.00 0.00 37 1010.3
20260506221326 84 188 4.0 12.0 0.00 0.00 0.00 37 1010.3
20260506221312 84 165 5.0 12.0 0.00 0.00 0.00 37 1010.4
20260506220732 84 186 4.0 12.0 0.00 0.00 0.00 37 1010.4
20260506220659 84 146 5.0 13.0 0.00 0.00 0.00 36 1010.4
20260506220644 84 262 6.0 13.0 0.00 0.00 0.00 36 1010.4
20260506220633 84 134 5.0 13.0 0.00 0.00 0.00 35 1010.3
20260506220620 84 141 4.0 13.0 0.00 0.00 0.00 36 1010.3
20260506220026 84 198 4.0 13.0 0.00 0.00 0.00 36 1010.4
20260506220003 84 234 7.0 13.0 0.00 0.00 0.00 36 1010.5
20260506215949 84 217 6.0 13.0 0.00 0.00 0.00 36 1010.4
20260506215621 84 142 3.0 13.0 0.00 0.00 0.00 37 1010.4
20260506215521 84 210 4.0 13.0 0.00 0.00 0.00 37 1010.5
20260506215422 83 240 4.0 13.0 0.00 0.00 0.00 36 1010.4
20260506215406 83 160 3.0 13.0 0.00 0.00 0.00 36 1010.4
20260506215355 83 236 4.0 13.0 0.00 0.00 0.00 37 1010.5
20260506215017 83 192 7.0 13.0 0.00 0.00 0.00 35 1010.6
20260506214956 83 150 6.0 13.0 0.00 0.00 0.00 35 1010.5
20260506214945 83 189 4.0 13.0 0.00 0.00 0.00 36 1010.5
20260506214615 83 261 3.0 13.0 0.00 0.00 0.00 35 1010.5
20260506214514 83 196 4.0 13.0 0.00 0.00 0.00 35 1010.6
20260506214414 83 243 4.0 13.0 0.00 0.00 0.00 36 1010.6
20260506214313 83 213 4.0 13.0 0.00 0.00 0.00 36 1010.7
20260506214223 83 207 5.0 13.0 0.00 0.00 0.00 37 1010.7
20260506214111 83 244 7.0 13.0 0.00 0.00 0.00 37 1010.7
20260506214012 83 170 9.0 15.0 0.00 0.00 0.00 37 1010.7
20260506213910 83 196 9.0 15.0 0.00 0.00 0.00 37 1010.7
20260506213812 83 162 9.0 15.0 0.00 0.00 0.00 36 1010.8
20260506213719 83 171 6.0 16.0 0.00 0.00 0.00 36 1010.8
20260506213609 83 194 4.0 16.0 0.00 0.00 0.00 37 1010.8
20260506213508 83 195 4.0 16.0 0.00 0.00 0.00 38 1010.8
20260506213407 83 190 4.0 16.0 0.00 0.00 0.00 37 1010.8
20260506213306 83 226 4.0 16.0 0.00 0.00 0.00 37 1010.9
20260506213208 83 235 4.0 16.0 0.00 0.00 0.00 37 1010.9
20260506213105 83 232 3.0 16.0 0.00 0.00 0.00 37 1010.9
20260506213004 83 254 7.0 16.0 0.00 0.00 0.00 39 1010.9
20260506212910 83 194 7.0 16.0 0.00 0.00 0.00 37 1010.9
20260506212855 83 192 6.0 16.0 0.00 0.00 0.00 37 1010.9
20260506212832 83 167 6.0 16.0 0.00 0.00 0.00 39 1010.9
20260506212822 83 180 3.0 16.0 0.00 0.00 0.00 39 1010.9
20260506212807 83 255 4.0 16.0 0.00 0.00 0.00 39 1010.9
20260506212757 83 221 6.0 16.0 0.00 0.00 0.00 39 1011.0
20260506212222 83 161 8.0 16.0 0.00 0.00 0.00 38 1011.0
20260506211903 83 153 5.0 14.0 0.00 0.00 0.00 39 1011.0
20260506211804 83 181 5.0 12.0 0.00 0.00 0.00 38 1011.0
20260506211714 83 236 3.0 12.0 0.00 0.00 0.00 38 1011.0
20260506211602 83 165 3.0 18.0 0.00 0.00 0.00 39 1011.1
20260506211536 83 207 6.0 18.0 0.00 0.00 0.00 38 1011.1
20260506211522 83 213 7.0 18.0 0.00 0.00 0.00 38 1011.1
20260506211211 83 186 5.0 18.0 0.00 0.00 0.00 37 1011.2
20260506211104 83 179 6.0 18.0 0.00 0.00 0.00 37 1011.2
20260506211034 83 216 5.0 18.0 0.00 0.00 0.00 37 1011.1
20260506211022 83 233 6.0 18.0 0.00 0.00 0.00 37 1011.1
20260506210705 83 174 5.0 18.0 0.00 0.00 0.00 37 1011.0
20260506210604 83 271 6.0 12.0 0.00 0.00 0.00 38 1011.0
20260506210501 83 263 6.0 12.0 0.00 0.00 0.00 38 1011.1
20260506210403 84 200 5.0 12.0 0.00 0.00 0.00 37 1011.1
20260506210301 84 221 4.0 10.0 0.00 0.00 0.00 38 1011.3
20260506210210 83 251 5.0 10.0 0.00 0.00 0.00 38 1011.3
20260506210002 83 201 6.0 10.0 0.00 0.00 0.00 38 1011.2
20260506205901 83 242 5.0 9.0 0.00 0.00 0.00 38 1011.3
20260506205801 83 198 4.0 10.0 0.00 0.00 0.00 38 1011.3
20260506205706 83 240 4.0 10.0 0.00 0.00 0.00 38 1011.3
20260506205600 83 202 5.0 10.0 0.00 0.00 0.00 38 1011.4
20260506205518 83 238 5.0 10.0 0.00 0.00 0.00 38 1011.3
20260506205505 83 243 4.0 10.0 0.00 0.00 0.00 38 1011.4
20260506205453 83 160 3.0 14.0 0.00 0.00 0.00 38 1011.4
20260506205128 83 167 5.0 14.0 0.00 0.00 0.00 39 1011.5
20260506205115 83 159 5.0 14.0 0.00 0.00 0.00 38 1011.4
20260506204754 83 228 4.0 14.0 0.00 0.00 0.00 38 1011.4
20260506204659 83 204 4.0 14.0 0.00 0.00 0.00 38 1011.4
20260506204557 83 146 5.0 14.0 0.00 0.00 0.00 38 1011.3
20260506204450 83 227 7.0 14.0 0.00 0.00 0.00 38 1011.4
20260506204354 83 245 6.0 14.0 0.00 0.00 0.00 38 1011.5
20260506204248 83 207 5.0 14.0 0.00 0.00 0.00 38 1011.4
20260506204158 83 175 5.0 13.0 0.00 0.00 0.00 37 1011.5
20260506204048 83 234 6.0 20.0 0.00 0.00 0.00 38 1011.5
20260506204018 83 232 6.0 20.0 0.00 0.00 0.00 38 1011.5
20260506204006 83 224 4.0 20.0 0.00 0.00 0.00 39 1011.4
20260506203657 83 192 6.0 20.0 0.00 0.00 0.00 38 1011.4
20260506203616 83 143 5.0 20.0 0.00 0.00 0.00 38 1011.5
20260506203604 83 148 5.0 20.0 0.00 0.00 0.00 38 1011.4
20260506203243 83 168 7.0 20.0 0.00 0.00 0.00 37 1011.5
20260506203152 83 178 5.0 20.0 0.00 0.00 0.00 38 1011.5
20260506203041 83 241 5.0 18.0 0.00 0.00 0.00 38 1011.5
20260506202941 83 173 5.0 18.0 0.00 0.00 0.00 38 1011.6
20260506202840 83 216 6.0 18.0 0.00 0.00 0.00 38 1011.6
20260506202823 83 223 6.0 18.0 0.00 0.00 0.00 37 1011.6
20260506202810 83 226 6.0 18.0 0.00 0.00 0.00 38 1011.7
20260506202438 83 192 8.0 18.0 0.00 0.00 0.00 37 1011.6
20260506202338 83 151 6.0 18.0 0.00 0.00 0.00 37 1011.7
20260506202236 83 284 4.0 18.0 0.00 0.00 0.00 38 1011.6
20260506202141 83 128 3.0 12.0 0.00 0.00 0.00 38 1011.6
20260506202105 83 240 3.0 12.0 0.00 0.00 0.00 40 1011.6
20260506202054 83 205 4.0 12.0 0.00 0.00 0.00 39 1011.6
20260506201735 82 202 6.0 12.0 0.00 0.00 0.00 38 1011.6
20260506201632 82 178 8.0 12.0 0.00 0.00 0.00 38 1011.6
20260506201532 83 315 7.0 12.0 0.00 0.00 0.00 37 1011.6
20260506201432 83 250 5.0 12.0 0.00 0.00 0.00 37 1011.7
20260506201414 83 223 6.0 11.0 0.00 0.00 0.00 37 1011.7
20260506201402 83 255 5.0 11.0 0.00 0.00 0.00 37 1011.6
20260506201101 82 259 4.0 15.0 0.00 0.00 0.00 36 1011.6
20260506201050 82 261 5.0 15.0 0.00 0.00 0.00 39 1011.6
20260506200731 83 253 4.0 15.0 0.00 0.00 0.00 38 1011.7
20260506200640 83 227 6.0 15.0 0.00 0.00 0.00 38 1011.7
20260506200530 82 196 6.0 15.0 0.00 0.00 0.00 38 1011.7
20260506200430 83 263 6.0 15.0 0.00 0.00 0.00 37 1011.7
20260506200331 83 211 5.0 15.0 0.00 0.00 0.00 38 1011.7
20260506200229 82 194 5.0 15.0 0.00 0.00 0.00 38 1011.7
20260506200143 83 207 6.0 12.0 0.00 0.00 0.00 39 1011.7
20260506200029 83 198 7.0 12.0 0.00 0.00 0.00 38 1011.7
20260506200009 83 157 6.0 12.0 0.00 0.00 0.00 37 1011.7
20260506195954 83 148 4.0 12.0 0.00 0.00 0.00 39 1011.8
20260506195637 83 179 5.0 9.0 0.00 0.00 0.00 38 1011.8
20260506195528 83 287 4.0 9.0 0.00 0.00 0.00 39 1011.7
20260506195427 83 229 3.0 9.0 0.00 0.00 0.00 40 1011.7
20260506195329 83 342 3.0 10.0 0.00 0.00 0.00 40 1011.7
20260506195226 83 151 3.0 10.0 0.00 0.00 0.00 40 1011.8
20260506195137 82 188 2.0 10.0 0.00 0.00 0.00 39 1011.8
20260506195024 82 225 3.0 10.0 0.00 0.00 0.00 39 1011.7
20260506194928 82 238 4.0 10.0 0.00 0.00 0.00 39 1011.7
20260506194907 82 191 5.0 10.0 0.00 0.00 0.00 38 1011.8
20260506194856 82 211 4.0 10.0 0.00 0.00 0.00 39 1011.8
20260506194525 82 221 6.0 10.0 0.00 0.00 0.00 39 1011.8
20260506194422 82 155 5.0 10.0 0.00 0.00 0.00 39 1011.8
20260506194324 82 177 3.0 7.0 0.00 0.00 0.00 39 1011.9
20260506194220 82 269 3.0 7.0 0.00 0.00 0.00 39 1011.8
20260506194123 82 248 5.0 7.0 0.00 0.00 0.00 38 1011.8
20260506193859 82 179 5.0 11.0 0.00 0.00 0.00 38 1011.9
20260506193758 82 170 4.0 11.0 0.00 0.00 0.00 39 1011.9
20260506193657 82 80 4.0 9.0 0.00 0.00 0.00 39 1011.9
20260506193557 82 173 3.0 9.0 0.00 0.00 0.00 39 1011.9
20260506193538 82 197 2.0 9.0 0.00 0.00 0.00 39 1011.9
20260506193527 81 219 4.0 9.0 0.00 0.00 0.00 40 1011.9
20260506193158 81 164 3.0 14.0 0.00 0.00 0.00 41 1011.9
20260506193053 81 159 3.0 14.0 0.00 0.00 0.00 41 1012.0
20260506192955 81 163 4.0 14.0 0.00 0.00 0.00 42 1012.0
20260506192852 81 208 6.0 14.0 0.00 0.00 0.00 41 1012.0
20260506192754 80 161 6.0 14.0 0.00 0.00 0.00 41 1012.0
20260506192651 80 182 5.0 14.0 0.00 0.00 0.00 42 1012.0
20260506192550 80 175 7.0 14.0 0.00 0.00 0.00 42 1012.0
20260506192450 80 170 7.0 14.0 0.00 0.00 0.00 41 1012.0
20260506192349 81 273 3.0 14.0 0.00 0.00 0.00 41 1012.0
20260506192306 80 254 2.0 13.0 0.00 0.00 0.00 42 1012.0
20260506192247 80 226 3.0 13.0 0.00 0.00 0.00 42 1012.0
20260506192235 80 238 4.0 13.0 0.00 0.00 0.00 43 1012.0
20260506191848 80 169 4.0 13.0 0.00 0.00 0.00 41 1012.0
20260506191745 80 201 3.0 11.0 0.00 0.00 0.00 42 1012.0
20260506191644 80 141 4.0 11.0 0.00 0.00 0.00 43 1011.9
20260506191544 80 195 5.0 11.0 0.00 0.00 0.00 43 1012.0
20260506191447 79 212 7.0 18.0 0.00 0.00 0.00 43 1011.9
20260506191348 79 188 6.0 18.0 0.00 0.00 0.00 44 1011.9
20260506191306 79 153 4.0 18.0 0.00 0.00 0.00 44 1012.0
20260506191252 79 247 5.0 18.0 0.00 0.00 0.00 43 1011.9
20260506190943 79 227 6.0 18.0 0.00 0.00 0.00 43 1012.0
20260506190927 79 157 4.0 18.0 0.00 0.00 0.00 43 1012.0
20260506190905 78 173 6.0 18.0 0.00 0.00 0.00 45 1012.0
20260506190628 79 288 5.0 18.0 0.00 0.00 0.00 46 1012.1
20260506190616 79 262 6.0 15.0 0.00 0.00 0.00 46 1012.1
20260506190605 78 167 4.0 15.0 0.00 0.00 0.00 46 1012.1
20260506190539 78 198 5.0 15.0 0.00 0.00 0.00 45 1012.1
20260506190309 78 180 5.0 15.0 0.00 0.00 0.00 44 1012.1
20260506190258 78 194 5.0 15.0 0.00 0.00 0.00 44 1012.1
20260506190246 78 236 6.0 15.0 0.00 0.00 0.00 45 1012.1
20260506185519 78 164 4.0 15.0 0.00 0.00 0.00 45 1012.1
20260506185508 78 197 4.0 15.0 0.00 0.00 0.00 46 1012.1
20260506185126 78 184 5.0 15.0 0.00 0.00 0.00 46 1012.1
20260506185026 78 159 4.0 15.0 0.00 0.00 0.00 47 1012.1
20260506184926 78 169 3.0 15.0 0.00 0.00 0.00 48 1012.0
20260506184831 77 249 4.0 15.0 0.00 0.00 0.00 48 1012.0
20260506184725 77 269 6.0 15.0 0.00 0.00 0.00 47 1012.0
20260506184623 77 265 6.0 15.0 0.00 0.00 0.00 47 1012.1
20260506184524 77 192 4.0 11.0 0.00 0.00 0.00 47 1012.1
20260506184423 77 171 4.0 11.0 0.00 0.00 0.00 47 1012.1
20260506184406 77 220 4.0 11.0 0.00 0.00 0.00 48 1012.1
20260506184343 77 229 4.0 11.0 0.00 0.00 0.00 47 1012.1
20260506184020 77 199 5.0 11.0 0.00 0.00 0.00 47 1012.1
20260506183921 77 242 6.0 11.0 0.00 0.00 0.00 47 1012.1
20260506183829 77 228 6.0 11.0 0.00 0.00 0.00 46 1012.2
20260506183718 77 171 5.0 18.0 0.00 0.00 0.00 46 1012.1
20260506183617 77 167 4.0 18.0 0.00 0.00 0.00 47 1012.2
20260506183517 77 224 5.0 18.0 0.00 0.00 0.00 47 1012.1
20260506183415 77 217 5.0 18.0 0.00 0.00 0.00 46 1012.1
20260506183324 77 284 5.0 18.0 0.00 0.00 0.00 47 1012.2
20260506183215 77 200 5.0 18.0 0.00 0.00 0.00 47 1012.2
20260506183145 77 213 5.0 18.0 0.00 0.00 0.00 48 1012.1
20260506183133 77 238 6.0 18.0 0.00 0.00 0.00 47 1012.1
20260506182811 77 305 8.0 18.0 0.00 0.00 0.00 47 1012.2
20260506182710 77 229 5.0 11.0 0.00 0.00 0.00 47 1012.3
20260506182610 77 158 4.0 11.0 0.00 0.00 0.00 49 1012.3
20260506182553 77 145 6.0 11.0 0.00 0.00 0.00 48 1012.4
20260506182540 77 263 6.0 11.0 0.00 0.00 0.00 47 1012.3
20260506182211 77 194 5.0 14.0 0.00 0.00 0.00 48 1012.3
20260506182107 77 257 5.0 14.0 0.00 0.00 0.00 48 1012.3
20260506182006 77 198 5.0 14.0 0.00 0.00 0.00 47 1012.4
20260506181907 77 173 5.0 14.0 0.00 0.00 0.00 47 1012.3
20260506181802 77 250 4.0 14.0 0.00 0.00 0.00 48 1012.4
20260506181705 76 222 4.0 14.0 0.00 0.00 0.00 50 1012.4
20260506181601 76 106 6.0 14.0 0.00 0.00 0.00 50 1012.4
20260506181503 76 197 7.0 14.0 0.00 0.00 0.00 50 1012.4
20260506181403 76 171 5.0 14.0 0.00 0.00 0.00 50 1012.4
20260506181336 76 186 6.0 12.0 0.00 0.00 0.00 50 1012.4
20260506181323 76 232 6.0 12.0 0.00 0.00 0.00 50 1012.4
20260506180959 76 161 6.0 11.0 0.00 0.00 0.00 50 1012.4
20260506180859 76 192 5.0 11.0 0.00 0.00 0.00 50 1012.4
20260506180758 76 249 5.0 11.0 0.00 0.00 0.00 50 1012.5
20260506180658 76 196 6.0 11.0 0.00 0.00 0.00 50 1012.4
20260506180625 76 178 5.0 11.0 0.00 0.00 0.00 50 1012.4
20260506180612 76 218 4.0 13.0 0.00 0.00 0.00 51 1012.4
20260506180601 76 153 5.0 14.0 0.00 0.00 0.00 51 1012.4
20260506180314 76 232 5.0 14.0 0.00 0.00 0.00 50 1012.5
20260506175953 76 163 5.0 14.0 0.00 0.00 0.00 51 1012.5
20260506175852 75 233 5.0 14.0 0.00 0.00 0.00 51 1012.5
20260506175751 75 240 5.0 14.0 0.00 0.00 0.00 52 1012.5
20260506175723 75 149 7.0 14.0 0.00 0.00 0.00 52 1012.4
20260506175712 75 292 7.0 14.0 0.00 0.00 0.00 51 1012.4
20260506175348 75 236 4.0 12.0 0.00 0.00 0.00 51 1012.4
20260506175248 75 163 4.0 12.0 0.00 0.00 0.00 53 1012.5
20260506175149 75 242 4.0 12.0 0.00 0.00 0.00 52 1012.4
20260506175046 75 238 5.0 12.0 0.00 0.00 0.00 52 1012.5
20260506174946 75 191 6.0 12.0 0.00 0.00 0.00 52 1012.5
20260506174845 75 228 6.0 12.0 0.00 0.00 0.00 52 1012.4
20260506174744 75 194 6.0 12.0 0.00 0.00 0.00 52 1012.5
20260506174643 75 250 5.0 12.0 0.00 0.00 0.00 52 1012.5
20260506174613 74 206 3.0 14.0 0.00 0.00 0.00 52 1012.5
20260506174601 74 158 3.0 14.0 0.00 0.00 0.00 52 1012.4
20260506174241 74 202 5.0 20.0 0.00 0.00 0.00 53 1012.6
20260506174141 74 159 5.0 20.0 0.00 0.00 0.00 53 1012.5
20260506174040 74 210 5.0 20.0 0.00 0.00 0.00 55 1012.5
20260506173939 74 188 5.0 20.0 0.00 0.00 0.00 55 1012.5
20260506173839 74 178 6.0 20.0 0.00 0.00 0.00 55 1012.5
20260506173739 74 288 9.0 20.0 0.00 0.00 0.00 53 1012.6
20260506173636 74 196 10.0 20.0 0.00 0.00 0.00 53 1012.6
20260506173536 74 193 9.0 20.0 0.00 0.00 0.00 53 1012.6
20260506173436 74 145 6.0 20.0 0.00 0.00 0.00 52 1012.7
20260506173335 74 235 6.0 12.0 0.00 0.00 0.00 52 1012.6
20260506173234 74 204 7.0 12.0 0.00 0.00 0.00 52 1012.6
20260506173147 74 167 5.0 12.0 0.00 0.00 0.00 53 1012.6
20260506173131 74 272 3.0 12.0 0.00 0.00 0.00 54 1012.6
20260506173119 74 243 4.0 12.0 0.00 0.00 0.00 55 1012.7
20260506173107 74 177 4.0 12.0 0.00 0.00 0.00 54 1012.6
20260506172824 74 215 5.0 12.0 0.00 0.00 0.00 53 1012.7
20260506172548 74 193 5.0 12.0 0.00 0.00 0.00 54 1012.8
20260506172229 74 219 4.0 11.0 0.00 0.00 0.00 54 1012.7
20260506172131 73 242 3.0 11.0 0.00 0.00 0.00 55 1012.8
20260506172029 73 167 5.0 11.0 0.00 0.00 0.00 55 1012.8
20260506171929 73 250 5.0 11.0 0.00 0.00 0.00 54 1012.8
20260506171829 73 150 3.0 11.0 0.00 0.00 0.00 55 1012.8
20260506171802 73 233 3.0 11.0 0.00 0.00 0.00 55 1012.8
20260506171749 73 180 3.0 11.0 0.00 0.00 0.00 55 1012.8
20260506171429 73 205 5.0 13.0 0.00 0.00 0.00 55 1012.8
20260506171329 73 142 5.0 13.0 0.00 0.00 0.00 55 1012.8
20260506171228 72 186 3.0 13.0 0.00 0.00 0.00 56 1012.8
20260506171129 72 196 3.0 13.0 0.00 0.00 0.00 57 1012.8
20260506171029 72 278 4.0 13.0 0.00 0.00 0.00 57 1012.8
20260506170929 72 152 4.0 13.0 0.00 0.00 0.00 56 1012.8
20260506170830 72 227 5.0 13.0 0.00 0.00 0.00 56 1012.9
20260506170729 72 196 7.0 13.0 0.00 0.00 0.00 56 1012.8
20260506170631 72 161 6.0 13.0 0.00 0.00 0.00 57 1012.9
20260506170528 72 152 6.0 11.0 0.00 0.00 0.00 57 1012.8
20260506170432 72 214 5.0 11.0 0.00 0.00 0.00 57 1012.8
20260506170326 72 142 6.0 14.0 0.00 0.00 0.00 57 1012.8
20260506170230 72 225 5.0 14.0 0.00 0.00 0.00 57 1012.8
20260506170157 72 182 4.0 14.0 0.00 0.00 0.00 58 1012.9
20260506170142 71 207 4.0 14.0 0.00 0.00 0.00 58 1012.9
20260506165823 71 229 3.0 14.0 0.00 0.00 0.00 58 1012.9
20260506165716 71 184 4.0 14.0 0.00 0.00 0.00 58 1012.9
20260506165615 71 222 5.0 14.0 0.00 0.00 0.00 58 1012.9
20260506165514 71 226 6.0 14.0 0.00 0.00 0.00 57 1012.9
20260506165414 71 146 6.0 14.0 0.00 0.00 0.00 58 1012.9
20260506165313 71 141 5.0 14.0 0.00 0.00 0.00 58 1012.9
20260506165213 71 169 6.0 14.0 0.00 0.00 0.00 58 1012.9
20260506165112 71 155 5.0 14.0 0.00 0.00 0.00 58 1012.9
20260506165011 70 186 6.0 14.0 0.00 0.00 0.00 58 1012.9
20260506164911 70 232 6.0 14.0 0.00 0.00 0.00 58 1012.8
20260506164810 70 196 6.0 13.0 0.00 0.00 0.00 59 1012.9
20260506164711 70 211 4.0 13.0 0.00 0.00 0.00 60 1012.9
20260506164608 70 140 3.0 13.0 0.00 0.00 0.00 60 1012.9
20260506164538 70 230 4.0 13.0 0.00 0.00 0.00 60 1012.9
20260506164525 70 227 4.0 13.0 0.00 0.00 0.00 59 1013.0
20260506164205 70 285 7.0 13.0 0.00 0.00 0.00 59 1013.0
20260506164105 70 180 5.0 13.0 0.00 0.00 0.00 59 1013.0
20260506164035 70 195 5.0 12.0 0.00 0.00 0.00 60 1013.0
20260506164023 70 196 5.0 12.0 0.00 0.00 0.00 60 1013.0
20260506163706 69 161 5.0 12.0 0.00 0.00 0.00 60 1013.1
20260506163602 69 123 6.0 12.0 0.00 0.00 0.00 60 1013.1
20260506163507 69 205 5.0 12.0 0.00 0.00 0.00 60 1013.0
20260506163446 69 215 4.0 12.0 0.00 0.00 0.00 61 1013.0
20260506163435 69 188 4.0 10.0 0.00 0.00 0.00 61 1013.1
20260506163104 69 196 4.0 10.0 0.00 0.00 0.00 61 1013.0
20260506163001 69 200 4.0 13.0 0.00 0.00 0.00 61 1013.1
20260506162907 69 236 4.0 13.0 0.00 0.00 0.00 61 1013.1
20260506162801 69 186 4.0 13.0 0.00 0.00 0.00 61 1013.1
20260506162705 69 195 4.0 13.0 0.00 0.00 0.00 61 1013.1
20260506162601 69 215 4.0 15.0 0.00 0.00 0.00 61 1013.0
20260506162506 69 225 5.0 15.0 0.00 0.00 0.00 62 1013.1
20260506162401 69 249 5.0 15.0 0.00 0.00 0.00 62 1013.1
20260506162306 69 197 5.0 15.0 0.00 0.00 0.00 62 1013.1
20260506162202 68 185 4.0 15.0 0.00 0.00 0.00 62 1013.0
20260506162107 68 200 2.0 15.0 0.00 0.00 0.00 62 1013.0
20260506162002 68 257 3.0 15.0 0.00 0.00 0.00 64 1013.0
20260506161907 68 259 6.0 15.0 0.00 0.00 0.00 63 1013.0
20260506161802 68 198 7.0 15.0 0.00 0.00 0.00 63 1013.0
20260506161706 68 143 6.0 15.0 0.00 0.00 0.00 63 1013.0
20260506161601 68 208 6.0 13.0 0.00 0.00 0.00 63 1013.0
20260506161504 68 202 5.0 13.0 0.00 0.00 0.00 63 1013.0
20260506161400 68 273 5.0 13.0 0.00 0.00 0.00 63 1013.0
20260506161306 68 211 5.0 13.0 0.00 0.00 0.00 63 1012.9
20260506161203 68 165 6.0 13.0 0.00 0.00 0.00 63 1013.0
20260506161104 68 228 6.0 13.0 0.00 0.00 0.00 63 1013.0
20260506161001 68 182 6.0 13.0 0.00 0.00 0.00 63 1013.1
20260506160905 68 163 5.0 12.0 0.00 0.00 0.00 62 1013.0
20260506160834 68 225 4.0 12.0 0.00 0.00 0.00 63 1013.0
20260506160807 68 234 4.0 12.0 0.00 0.00 0.00 63 1013.0
20260506160755 68 265 5.0 12.0 0.00 0.00 0.00 63 1013.0
20260506160523 68 143 5.0 12.0 0.00 0.00 0.00 63 1013.0
20260506160200 68 184 4.0 13.0 0.00 0.00 0.00 63 1013.0
20260506160059 68 199 3.0 15.0 0.00 0.00 0.00 63 1013.0
20260506155957 68 269 4.0 15.0 0.00 0.00 0.00 63 1012.9
20260506155858 67 184 3.0 15.0 0.00 0.00 0.00 64 1012.9
20260506155756 67 173 2.0 15.0 0.00 0.00 0.00 64 1012.9
20260506155656 67 163 2.0 15.0 0.00 0.00 0.00 64 1012.9
20260506155555 67 180 4.0 15.0 0.00 0.00 0.00 64 1012.9
20260506155457 67 187 5.0 15.0 0.00 0.00 0.00 64 1013.0
20260506155439 67 182 5.0 15.0 0.00 0.00 0.00 64 1012.9
20260506155426 67 174 5.0 15.0 0.00 0.00 0.00 64 1012.9
20260506155053 67 207 4.0 12.0 0.00 0.00 0.00 64 1013.0
20260506155012 67 181 3.0 12.0 0.00 0.00 0.00 64 1013.0
20260506154852 67 143 5.0 10.0 0.00 0.00 0.00 64 1013.0
20260506154749 67 186 5.0 10.0 0.00 0.00 0.00 63 1013.0
20260506154651 67 178 5.0 10.0 0.00 0.00 0.00 63 1013.0
20260506154618 67 277 4.0 9.0 0.00 0.00 0.00 63 1013.0
20260506154607 67 196 4.0 9.0 0.00 0.00 0.00 64 1013.0
20260506154249 67 204 4.0 11.0 0.00 0.00 0.00 63 1013.0
20260506154145 67 152 2.0 11.0 0.00 0.00 0.00 64 1013.0
20260506154046 67 217 2.0 11.0 0.00 0.00 0.00 64 1013.0
20260506154020 67 144 2.0 11.0 0.00 0.00 0.00 64 1012.9
20260506154009 66 196 4.0 11.0 0.00 0.00 0.00 64 1013.0
20260506153715 66 164 5.0 11.0 0.00 0.00 0.00 64 1012.9
20260506153703 66 229 5.0 11.0 0.00 0.00 0.00 64 1012.9
20260506153353 66 216 4.0 11.0 0.00 0.00 0.00 64 1012.9
20260506153338 66 205 2.0 11.0 0.00 0.00 0.00 64 1012.9
20260506153310 66 239 2.0 11.0 0.00 0.00 0.00 65 1012.8
20260506153259 66 256 3.0 11.0 0.00 0.00 0.00 65 1012.9
20260506153027 66 160 5.0 11.0 0.00 0.00 0.00 65 1012.9
20260506152738 66 195 4.0 9.0 0.00 0.00 0.00 64 1012.9
20260506152726 66 153 5.0 9.0 0.00 0.00 0.00 65 1012.9
20260506152713 66 243 5.0 10.0 0.00 0.00 0.00 65 1012.9
20260506152132 65 204 4.0 10.0 0.00 0.00 0.00 65 1012.8
20260506152034 65 168 3.0 10.0 0.00 0.00 0.00 65 1012.8
20260506151956 65 199 3.0 10.0 0.00 0.00 0.00 65 1012.8
20260506151831 65 121 4.0 11.0 0.00 0.00 0.00 65 1012.9
20260506151729 65 179 4.0 11.0 0.00 0.00 0.00 65 1012.9
20260506151630 65 189 4.0 13.0 0.00 0.00 0.00 65 1012.9
20260506151529 65 195 5.0 13.0 0.00 0.00 0.00 65 1012.9
20260506151431 65 188 4.0 13.0 0.00 0.00 0.00 66 1012.9
20260506151330 65 134 4.0 13.0 0.00 0.00 0.00 66 1012.9
20260506151231 65 202 4.0 13.0 0.00 0.00 0.00 66 1012.9
20260506151129 65 248 4.0 13.0 0.00 0.00 0.00 66 1012.9
20260506151029 65 190 6.0 13.0 0.00 0.00 0.00 66 1013.0
20260506150930 64 190 6.0 13.0 0.00 0.00 0.00 66 1013.0
20260506150830 64 172 6.0 13.0 0.00 0.00 0.00 66 1013.0
20260506150729 65 145 4.0 13.0 0.00 0.00 0.00 66 1013.0
20260506150632 64 199 4.0 12.0 0.00 0.00 0.00 66 1012.9
20260506150558 64 241 5.0 12.0 0.00 0.00 0.00 67 1013.0
20260506150548 64 188 5.0 12.0 0.00 0.00 0.00 67 1013.0
20260506150535 64 190 5.0 12.0 0.00 0.00 0.00 67 1012.9
20260506150249 64 153 4.0 12.0 0.00 0.00 0.00 67 1012.9
20260506145929 64 211 5.0 12.0 0.00 0.00 0.00 66 1012.9
20260506145830 64 179 4.0 12.0 0.00 0.00 0.00 67 1012.9
20260506145729 64 201 5.0 12.0 0.00 0.00 0.00 67 1012.9
20260506145630 64 200 4.0 12.0 0.00 0.00 0.00 66 1012.9
20260506145530 64 265 6.0 12.0 0.00 0.00 0.00 66 1012.8
20260506145500 64 200 7.0 12.0 0.00 0.00 0.00 66 1012.8
20260506145449 64 174 5.0 12.0 0.00 0.00 0.00 66 1012.8
20260506145129 64 209 4.0 12.0 0.00 0.00 0.00 66 1012.9
20260506145031 64 175 4.0 12.0 0.00 0.00 0.00 66 1012.8
20260506144948 64 175 3.0 9.0 0.00 0.00 0.00 66 1012.9
20260506144830 64 186 4.0 9.0 0.00 0.00 0.00 66 1012.9
20260506144814 64 279 4.0 9.0 0.00 0.00 0.00 66 1013.0
20260506144751 64 241 3.0 9.0 0.00 0.00 0.00 66 1012.9
20260506144430 64 246 2.0 6.0 0.00 0.00 0.00 66 1012.9
20260506144329 64 236 3.0 6.0 0.00 0.00 0.00 66 1012.9
20260506144229 64 155 3.0 10.0 0.00 0.00 0.00 66 1012.8
20260506144130 64 257 2.0 10.0 0.00 0.00 0.00 66 1012.9
20260506144030 64 254 3.0 10.0 0.00 0.00 0.00 66 1012.8
20260506143933 64 151 3.0 10.0 0.00 0.00 0.00 66 1012.8
20260506143829 64 250 3.0 10.0 0.00 0.00 0.00 66 1012.8
20260506143728 64 209 3.0 10.0 0.00 0.00 0.00 66 1012.8
20260506143702 64 157 3.0 10.0 0.00 0.00 0.00 66 1012.8
20260506143646 64 197 4.0 10.0 0.00 0.00 0.00 66 1012.8
20260506143326 64 139 4.0 10.0 0.00 0.00 0.00 65 1012.8
20260506143226 64 223 4.0 9.0 0.00 0.00 0.00 66 1012.8
20260506143124 64 214 4.0 9.0 0.00 0.00 0.00 65 1012.8
20260506143023 64 238 5.0 9.0 0.00 0.00 0.00 65 1012.8
20260506142923 64 179 5.0 9.0 0.00 0.00 0.00 65 1012.8
20260506142822 64 152 4.0 9.0 0.00 0.00 0.00 65 1012.8
20260506142722 64 202 3.0 9.0 0.00 0.00 0.00 65 1012.8
20260506142621 64 169 4.0 9.0 0.00 0.00 0.00 65 1012.8
20260506142521 64 186 3.0 9.0 0.00 0.00 0.00 65 1012.7
20260506142422 64 180 2.0 9.0 0.00 0.00 0.00 65 1012.7
20260506142319 64 153 2.0 7.0 0.00 0.00 0.00 65 1012.7
20260506142245 64 257 3.0 7.0 0.00 0.00 0.00 65 1012.7
20260506142220 64 250 4.0 7.0 0.00 0.00 0.00 65 1012.6
20260506142209 64 199 3.0 7.0 0.00 0.00 0.00 64 1012.6
20260506141858 64 209 4.0 7.0 0.00 0.00 0.00 65 1012.6
20260506141846 64 202 3.0 7.0 0.00 0.00 0.00 64 1012.7
20260506141514 64 249 2.0 7.0 0.00 0.00 0.00 65 1012.6
20260506141413 64 200 2.0 7.0 0.00 0.00 0.00 65 1012.6
20260506141317 64 192 2.0 7.0 0.00 0.00 0.00 65 1012.6
20260506141212 64 257 2.0 7.0 0.00 0.00 0.00 65 1012.6
20260506141111 64 258 3.0 7.0 0.00 0.00 0.00 65 1012.5
20260506141011 64 295 3.0 7.0 0.00 0.00 0.00 65 1012.5
20260506140910 64 274 2.0 7.0 0.00 0.00 0.00 65 1012.6
20260506140810 64 194 3.0 7.0 0.00 0.00 0.00 66 1012.5
20260506140709 64 217 3.0 7.0 0.00 0.00 0.00 66 1012.5
20260506140611 64 226 3.0 7.0 0.00 0.00 0.00 66 1012.5
20260506140507 64 198 2.0 7.0 0.00 0.00 0.00 66 1012.5
20260506140402 63 188 4.0 7.0 0.00 0.00 0.00 66 1012.5
20260506140301 63 239 4.0 7.0 0.00 0.00 0.00 66 1012.5
20260506140207 63 200 3.0 7.0 0.00 0.00 0.00 66 1012.5
20260506140137 63 223 3.0 7.0 0.00 0.00 0.00 66 1012.5
20260506140123 63 180 3.0 7.0 0.00 0.00 0.00 67 1012.4
20260506135829 63 234 2.0 7.0 0.00 0.00 0.00 67 1012.4
20260506135815 63 251 2.0 6.0 0.00 0.00 0.00 67 1012.5
20260506135753 63 241 1.0 6.0 0.00 0.00 0.00 67 1012.4
20260506135521 63 248 1.0 5.0 0.00 0.00 0.00 67 1012.4
20260506135243 63 48 1.0 5.0 0.00 0.00 0.00 67 1012.4
20260506135219 63 167 1.0 8.0 0.00 0.00 0.00 67 1012.4
20260506134900 63 188 1.0 8.0 0.00 0.00 0.00 68 1012.4
20260506134800 62 188 2.0 8.0 0.00 0.00 0.00 67 1012.3
20260506134719 62 199 2.0 8.0 0.00 0.00 0.00 67 1012.3
20260506134654 62 212 2.0 8.0 0.00 0.00 0.00 67 1012.4
20260506134642 62 207 3.0 8.0 0.00 0.00 0.00 67 1012.4
20260506134407 62 169 3.0 8.0 0.00 0.00 0.00 67 1012.3
20260506134355 62 189 2.0 7.0 0.00 0.00 0.00 67 1012.3
20260506134109 62 269 2.0 5.0 0.00 0.00 0.00 67 1012.3
20260506133829 62 246 2.0 5.0 0.00 0.00 0.00 67 1012.3
20260506133817 62 171 3.0 5.0 0.00 0.00 0.00 67 1012.3
20260506133446 62 182 2.0 5.0 0.00 0.00 0.00 66 1012.2
20260506133345 62 240 2.0 8.0 0.00 0.00 0.00 67 1012.2
20260506133244 62 202 2.0 8.0 0.00 0.00 0.00 66 1012.2
20260506133151 62 275 2.0 8.0 0.00 0.00 0.00 66 1012.2
20260506133113 62 185 1.0 8.0 0.00 0.00 0.00 66 1012.2
20260506133102 62 205 2.0 8.0 0.00 0.00 0.00 66 1012.2
20260506132742 62 208 1.0 8.0 0.00 0.00 0.00 66 1012.2
20260506132648 62 234 1.0 8.0 0.00 0.00 0.00 66 1012.2
20260506132541 62 179 2.0 8.0 0.00 0.00 0.00 66 1012.1
20260506132513 62 246 3.0 8.0 0.00 0.00 0.00 66 1012.1
20260506132459 62 270 2.0 6.0 0.00 0.00 0.00 66 1012.1
20260506132147 62 207 2.0 5.0 0.00 0.00 0.00 66 1012.1
20260506132036 62 215 2.0 5.0 0.00 0.00 0.00 66 1012.1
20260506132000 62 166 2.0 5.0 0.00 0.00 0.00 66 1012.1
20260506131948 62 238 2.0 5.0 0.00 0.00 0.00 66 1012.0
20260506131937 62 269 2.0 5.0 0.00 0.00 0.00 66 1012.0
20260506131606 62 234 2.0 5.0 0.00 0.00 0.00 66 1012.1
20260506131552 62 219 2.0 5.0 0.00 0.00 0.00 66 1012.0
20260506131257 62 124 1.0 5.0 0.00 0.00 0.00 66 1012.0
20260506131233 62 198 2.0 5.0 0.00 0.00 0.00 66 1012.0
20260506131224 62 156 2.0 5.0 0.00 0.00 0.00 66 1012.0
20260506131211 62 132 2.0 5.0 0.00 0.00 0.00 66 1012.0
20260506130629 62 158 1.0 5.0 0.00 0.00 0.00 66 1012.0
20260506130529 62 137 0.0 2.0 0.00 0.00 0.00 66 1011.9
20260506130450 62 135 0.0 3.0 0.00 0.00 0.00 66 1011.9
20260506130438 62 123 1.0 3.0 0.00 0.00 0.00 66 1011.9
20260506130425 62 223 1.0 3.0 0.00 0.00 0.00 66 1011.9
20260506130143 62 204 1.0 3.0 0.00 0.00 0.00 66 1011.9
20260506125817 62 46 0.0 3.0 0.00 0.00 0.00 66 1011.8
20260506125711 62 46 1.0 3.0 0.00 0.00 0.00 66 1011.9
20260506125610 62 112 1.0 4.0 0.00 0.00 0.00 65 1011.8
20260506125513 62 109 1.0 5.0 0.00 0.00 0.00 65 1011.8
20260506125439 62 275 1.0 5.0 0.00 0.00 0.00 65 1011.8
20260506125429 62 263 0.0 5.0 0.00 0.00 0.00 65 1011.8
20260506125108 62 184 0.0 5.0 0.00 0.00 0.00 65 1011.8
20260506125008 62 184 0.0 5.0 0.00 0.00 0.00 65 1011.8
20260506124911 62 184 2.0 5.0 0.00 0.00 0.00 65 1011.7
20260506124805 62 157 2.0 5.0 0.00 0.00 0.00 65 1011.7
20260506124704 62 198 2.0 5.0 0.00 0.00 0.00 65 1011.7
20260506124601 62 159 1.0 4.0 0.00 0.00 0.00 65 1011.7
20260506124505 62 205 0.0 4.0 0.00 0.00 0.00 65 1011.7
20260506124403 62 64 0.0 4.0 0.00 0.00 0.00 66 1011.7
20260506124305 62 249 1.0 4.0 0.00 0.00 0.00 66 1011.7
20260506124203 62 249 0.0 4.0 0.00 0.00 0.00 66 1011.7
20260506124104 62 211 1.0 4.0 0.00 0.00 0.00 66 1011.7
20260506124000 62 128 2.0 4.0 0.00 0.00 0.00 66 1011.7
20260506123906 62 232 2.0 4.0 0.00 0.00 0.00 66 1011.7
20260506123800 62 292 1.0 4.0 0.00 0.00 0.00 66 1011.7
20260506123705 62 171 1.0 4.0 0.00 0.00 0.00 66 1011.7
20260506123602 62 171 1.0 3.0 0.00 0.00 0.00 66 1011.7
20260506123502 62 128 0.0 3.0 0.00 0.00 0.00 66 1011.7
20260506123402 62 351 0.0 3.0 0.00 0.00 0.00 66 1011.7
20260506123302 62 297 1.0 5.0 0.00 0.00 0.00 66 1011.7
20260506123202 62 178 1.0 5.0 0.00 0.00 0.00 66 1011.7
20260506123102 62 115 1.0 5.0 0.00 0.00 0.00 66 1011.7
20260506123003 62 352 1.0 5.0 0.00 0.00 0.00 67 1011.7
20260506122901 62 0 1.0 5.0 0.00 0.00 0.00 67 1011.7
20260506122802 62 109 1.0 5.0 0.00 0.00 0.00 66 1011.6
20260506122702 62 38 1.0 5.0 0.00 0.00 0.00 66 1011.7
20260506122606 62 38 1.0 5.0 0.00 0.00 0.00 66 1011.6
20260506122552 62 186 1.0 5.0 0.00 0.00 0.00 66 1011.6
20260506122540 62 243 1.0 5.0 0.00 0.00 0.00 66 1011.5
20260506122530 62 207 1.0 5.0 0.00 0.00 0.00 66 1011.6
20260506122516 62 124 2.0 5.0 0.00 0.00 0.00 66 1011.5
20260506122231 63 258 3.0 5.0 0.00 0.00 0.00 66 1011.5
20260506122219 63 218 2.0 5.0 0.00 0.00 0.00 66 1011.4
20260506121948 63 199 2.0 6.0 0.00 0.00 0.00 66 1011.4
20260506121925 63 220 2.0 6.0 0.00 0.00 0.00 65 1011.3
20260506121914 63 200 2.0 10.0 0.00 0.00 0.00 65 1011.3
20260506121901 63 186 2.0 10.0 0.00 0.00 0.00 65 1011.3
20260506121820 63 167 2.0 10.0 0.00 0.00 0.00 65 1011.3
20260506121808 63 190 2.0 10.0 0.00 0.00 0.00 65 1011.2
20260506121306 63 170 2.0 10.0 0.00 0.00 0.00 65 1011.3
20260506121035 63 188 3.0 10.0 0.00 0.00 0.00 64 1011.2
20260506120530 63 172 2.0 6.0 0.00 0.00 0.00 65 1011.2
20260506120519 63 269 2.0 6.0 0.00 0.00 0.00 65 1011.2
20260506120234 63 234 2.0 6.0 0.00 0.00 0.00 65 1011.2
20260506120221 63 197 2.0 6.0 0.00 0.00 0.00 65 1011.1
20260506120209 63 191 2.0 5.0 0.00 0.00 0.00 65 1011.1
20260506115937 63 163 1.0 4.0 0.00 0.00 0.00 65 1011.1
20260506115654 63 224 2.0 4.0 0.00 0.00 0.00 65 1011.1
20260506115642 63 214 1.0 4.0 0.00 0.00 0.00 65 1011.0
20260506115105 63 234 2.0 4.0 0.00 0.00 0.00 66 1011.0
20260506115002 63 232 2.0 4.0 0.00 0.00 0.00 65 1011.0
20260506114903 63 233 1.0 5.0 0.00 0.00 0.00 66 1011.0
20260506114801 63 244 1.0 5.0 0.00 0.00 0.00 66 1011.0
20260506114730 63 240 1.0 5.0 0.00 0.00 0.00 66 1011.0
20260506114714 63 244 1.0 5.0 0.00 0.00 0.00 66 1011.0
20260506114649 63 180 1.0 5.0 0.00 0.00 0.00 66 1011.0
20260506114638 63 159 1.0 5.0 0.00 0.00 0.00 66 1011.0
20260506114629 63 188 1.0 6.0 0.00 0.00 0.00 66 1011.0
20260506114618 63 236 2.0 6.0 0.00 0.00 0.00 66 1011.0
20260506113802 63 223 0.0 9.0 0.00 0.00 0.00 67 1010.9
20260506113700 63 215 1.0 9.0 0.00 0.00 0.00 67 1010.9
20260506113610 63 239 3.0 9.0 0.00 0.00 0.00 68 1010.9
20260506113501 63 239 2.0 9.0 0.00 0.00 0.00 67 1010.9
20260506113401 63 268 2.0 9.0 0.00 0.00 0.00 68 1010.9
20260506113300 63 232 3.0 9.0 0.00 0.00 0.00 68 1010.8
20260506113207 63 208 2.0 9.0 0.00 0.00 0.00 68 1010.9
20260506113146 62 210 2.0 9.0 0.00 0.00 0.00 69 1010.9
20260506113124 62 236 3.0 9.0 0.00 0.00 0.00 69 1010.9
20260506112801 62 175 2.0 6.0 0.00 0.00 0.00 69 1010.9
20260506112701 62 227 2.0 7.0 0.00 0.00 0.00 69 1010.9
20260506112606 62 240 2.0 7.0 0.00 0.00 0.00 69 1010.9
20260506112505 62 270 2.0 7.0 0.00 0.00 0.00 69 1010.8
20260506112435 62 204 2.0 7.0 0.00 0.00 0.00 69 1010.9
20260506112424 62 206 1.0 7.0 0.00 0.00 0.00 69 1010.9
20260506112108 63 188 1.0 7.0 0.00 0.00 0.00 69 1010.9
20260506112001 62 165 1.0 7.0 0.00 0.00 0.00 69 1010.8
20260506111902 62 184 2.0 7.0 0.00 0.00 0.00 69 1010.9
20260506111814 63 183 2.0 7.0 0.00 0.00 0.00 69 1010.9
20260506111701 63 171 2.0 7.0 0.00 0.00 0.00 69 1010.8
20260506111606 63 246 2.0 7.0 0.00 0.00 0.00 69 1010.9
20260506111501 63 186 2.0 7.0 0.00 0.00 0.00 69 1010.8
20260506111430 63 215 3.0 8.0 0.00 0.00 0.00 69 1010.9
20260506111419 63 244 2.0 8.0 0.00 0.00 0.00 69 1010.9
20260506111406 63 150 2.0 8.0 0.00 0.00 0.00 69 1010.9
20260506111352 63 213 2.0 8.0 0.00 0.00 0.00 68 1010.8
20260506110803 63 238 3.0 8.0 0.00 0.00 0.00 68 1010.9
20260506110700 63 217 3.0 8.0 0.00 0.00 0.00 68 1010.9
20260506110603 63 186 2.0 8.0 0.00 0.00 0.00 68 1010.8
20260506110503 63 239 0.0 8.0 0.00 0.00 0.00 68 1010.9
20260506110403 63 200 1.0 8.0 0.00 0.00 0.00 68 1010.9
20260506110302 63 269 1.0 8.0 0.00 0.00 0.00 68 1010.9
20260506110203 63 266 2.0 8.0 0.00 0.00 0.00 68 1010.9
20260506110002 63 202 2.0 8.0 0.00 0.00 0.00 68 1010.8
20260506105900 63 185 2.0 8.0 0.00 0.00 0.00 68 1010.8
20260506105801 63 211 2.0 8.0 0.00 0.00 0.00 68 1010.8
20260506105701 63 232 2.0 8.0 0.00 0.00 0.00 68 1010.8
20260506105601 63 159 3.0 8.0 0.00 0.00 0.00 68 1010.8
20260506105503 63 227 2.0 8.0 0.00 0.00 0.00 68 1010.8
20260506105432 63 206 2.0 6.0 0.00 0.00 0.00 68 1010.8
20260506105421 63 251 2.0 6.0 0.00 0.00 0.00 68 1010.7
20260506105409 63 251 3.0 6.0 0.00 0.00 0.00 68 1010.7
20260506105122 63 251 2.0 6.0 0.00 0.00 0.00 68 1010.7
20260506104800 63 242 1.0 6.0 0.00 0.00 0.00 68 1010.7
20260506104703 63 227 1.0 5.0 0.00 0.00 0.00 68 1010.7
20260506104601 63 186 1.0 5.0 0.00 0.00 0.00 68 1010.7
20260506104504 63 184 2.0 7.0 0.00 0.00 0.00 68 1010.7
20260506104402 63 193 2.0 7.0 0.00 0.00 0.00 68 1010.6
20260506104302 63 229 2.0 7.0 0.00 0.00 0.00 68 1010.6
20260506104200 63 182 1.0 7.0 0.00 0.00 0.00 68 1010.6
20260506104059 63 198 1.0 7.0 0.00 0.00 0.00 68 1010.6
20260506103959 63 190 1.0 7.0 0.00 0.00 0.00 68 1010.6
20260506103858 63 209 1.0 7.0 0.00 0.00 0.00 68 1010.6
20260506103758 63 215 2.0 7.0 0.00 0.00 0.00 68 1010.6
20260506103658 63 214 2.0 7.0 0.00 0.00 0.00 68 1010.6
20260506103558 63 235 2.0 7.0 0.00 0.00 0.00 68 1010.6
20260506103456 63 296 2.0 6.0 0.00 0.00 0.00 68 1010.6
20260506103355 63 149 2.0 8.0 0.00 0.00 0.00 68 1010.5
20260506103331 63 229 1.0 8.0 0.00 0.00 0.00 68 1010.6
20260506103314 63 197 1.0 8.0 0.00 0.00 0.00 68 1010.6
20260506102953 63 207 3.0 8.0 0.00 0.00 0.00 68 1010.7
20260506102854 63 188 2.0 8.0 0.00 0.00 0.00 68 1010.6
20260506102746 63 185 1.0 8.0 0.00 0.00 0.00 68 1010.6
20260506102726 64 261 3.0 8.0 0.00 0.00 0.00 68 1010.6
20260506102714 64 166 3.0 8.0 0.00 0.00 0.00 68 1010.6
20260506102338 64 147 3.0 7.0 0.00 0.00 0.00 68 1010.6
20260506102236 64 214 2.0 7.0 0.00 0.00 0.00 68 1010.6
20260506102136 64 192 3.0 7.0 0.00 0.00 0.00 68 1010.6
20260506102053 64 219 4.0 7.0 0.00 0.00 0.00 68 1010.6
20260506102026 64 233 4.0 8.0 0.00 0.00 0.00 68 1010.6
20260506102015 64 241 3.0 8.0 0.00 0.00 0.00 68 1010.7
20260506101743 64 178 2.0 8.0 0.00 0.00 0.00 67 1010.6
20260506101731 64 161 2.0 8.0 0.00 0.00 0.00 67 1010.6
20260506101345 64 208 2.0 8.0 0.00 0.00 0.00 67 1010.7
20260506101335 64 250 3.0 8.0 0.00 0.00 0.00 67 1010.6
20260506101321 64 202 3.0 8.0 0.00 0.00 0.00 67 1010.6
20260506101308 64 182 2.0 8.0 0.00 0.00 0.00 67 1010.5
20260506101244 64 169 1.0 6.0 0.00 0.00 0.00 67 1010.5
20260506101014 64 194 3.0 6.0 0.00 0.00 0.00 67 1010.5
20260506100430 64 168 2.0 5.0 0.00 0.00 0.00 67 1010.6
20260506100406 64 194 2.0 5.0 0.00 0.00 0.00 67 1010.5
20260506100355 64 153 3.0 5.0 0.00 0.00 0.00 67 1010.6
20260506100116 64 161 2.0 5.0 0.00 0.00 0.00 67 1010.6
20260506100053 64 170 2.0 5.0 0.00 0.00 0.00 66 1010.5
20260506095729 64 163 1.0 4.0 0.00 0.00 0.00 66 1010.5
20260506095631 64 210 2.0 4.0 0.00 0.00 0.00 66 1010.6
20260506095535 64 154 2.0 4.0 0.00 0.00 0.00 66 1010.5
20260506095432 64 197 2.0 4.0 0.00 0.00 0.00 66 1010.5
20260506095329 64 185 2.0 4.0 0.00 0.00 0.00 66 1010.5
20260506095232 64 207 1.0 4.0 0.00 0.00 0.00 66 1010.5
20260506095128 64 171 1.0 4.0 0.00 0.00 0.00 66 1010.6
20260506095033 64 211 1.0 4.0 0.00 0.00 0.00 66 1010.5
20260506094928 64 221 1.0 4.0 0.00 0.00 0.00 66 1010.5
20260506094832 64 192 1.0 4.0 0.00 0.00 0.00 66 1010.5
20260506094809 64 217 1.0 3.0 0.00 0.00 0.00 66 1010.5
20260506094756 64 180 1.0 3.0 0.00 0.00 0.00 66 1010.5
20260506094744 64 167 1.0 3.0 0.00 0.00 0.00 66 1010.5
20260506094720 64 138 1.0 3.0 0.00 0.00 0.00 66 1010.5
20260506094453 65 256 1.0 3.0 0.00 0.00 0.00 66 1010.5
20260506094153 65 196 1.0 4.0 0.00 0.00 0.00 66 1010.5
20260506093821 65 198 1.0 5.0 0.00 0.00 0.00 66 1010.4
20260506093721 65 194 0.0 5.0 0.00 0.00 0.00 65 1010.4
20260506093622 65 213 0.0 5.0 0.00 0.00 0.00 65 1010.4
20260506093529 65 186 1.0 5.0 0.00 0.00 0.00 65 1010.4
20260506093411 65 172 2.0 5.0 0.00 0.00 0.00 65 1010.4
20260506093309 65 265 2.0 5.0 0.00 0.00 0.00 65 1010.4
20260506093211 65 188 2.0 5.0 0.00 0.00 0.00 65 1010.4
20260506093149 65 213 3.0 7.0 0.00 0.00 0.00 65 1010.4
20260506093126 65 218 4.0 7.0 0.00 0.00 0.00 65 1010.3
20260506092808 65 183 2.0 8.0 0.00 0.00 0.00 65 1010.4
20260506092705 65 180 2.0 8.0 0.00 0.00 0.00 64 1010.4
20260506092607 65 165 2.0 8.0 0.00 0.00 0.00 64 1010.4
20260506092503 65 222 1.0 8.0 0.00 0.00 0.00 64 1010.3
20260506092403 65 198 3.0 8.0 0.00 0.00 0.00 64 1010.4
20260506092305 65 175 3.0 8.0 0.00 0.00 0.00 64 1010.3
20260506092205 65 185 4.0 8.0 0.00 0.00 0.00 64 1010.3
20260506092101 65 165 4.0 8.0 0.00 0.00 0.00 64 1010.3
20260506092002 65 276 3.0 8.0 0.00 0.00 0.00 64 1010.3
20260506091937 65 192 2.0 8.0 0.00 0.00 0.00 64 1010.3
20260506091923 65 157 2.0 8.0 0.00 0.00 0.00 64 1010.3
20260506091648 65 260 3.0 8.0 0.00 0.00 0.00 63 1010.4
20260506091624 65 195 2.0 8.0 0.00 0.00 0.00 63 1010.3
20260506091311 66 185 3.0 13.0 0.00 0.00 0.00 63 1010.3
20260506091229 66 197 3.0 13.0 0.00 0.00 0.00 63 1010.3
20260506091213 66 186 3.0 13.0 0.00 0.00 0.00 62 1010.3
20260506091150 66 245 3.0 13.0 0.00 0.00 0.00 62 1010.3
20260506091136 66 205 3.0 13.0 0.00 0.00 0.00 62 1010.4
20260506090906 66 207 4.0 13.0 0.00 0.00 0.00 62 1010.4
20260506090854 66 210 6.0 13.0 0.00 0.00 0.00 62 1010.4